PEQUAWKET POND DAM: From 04/19/2019 00:00 to 06/20/2019 00:00

Date LAKE ELEVATION [FT] PRECIPITATION INCREMENT [IN] PRECIPITATION DAILY TOTAL [IN] AIR TEMPERATURE [F] RESERVOIR RELEASE [CFS]
06/18/2019 13:00 -- -- -- -- 57.0
06/18/2019 12:00 457.21 0.00 -- 68.9 57.0
06/18/2019 11:00 457.21 0.00 -- 65.5 57.0
06/18/2019 10:00 457.21 0.00 -- 64.5 57.3
06/18/2019 09:00 457.21 0.00 -- 61.4 57.8
06/18/2019 08:00 457.22 0.00 -- 59.6 58.0
06/18/2019 07:00 457.22 0.00 -- 58.5 58.0
06/18/2019 06:00 457.22 0.00 -- 57.2 58.5
06/18/2019 05:00 457.22 0.00 -- 55.6 59.0
06/18/2019 04:00 457.23 0.00 -- 54.9 59.0
06/18/2019 03:00 457.23 0.00 -- 55.9 59.5
06/18/2019 02:00 457.23 0.00 -- 56.2 60.0
06/18/2019 01:00 457.23 0.00 -- 57.4 60.0
06/18/2019 00:00 457.24 0.00 -- 59.5 60.0
06/17/2019 23:00 457.24 0.00 -- 61.7 60.0
06/17/2019 22:00 457.24 0.00 -- 65.7 60.3
06/17/2019 21:00 457.24 0.00 -- 71.4 61.0
06/17/2019 20:00 457.24 0.00 -- 75.7 61.0
06/17/2019 19:00 457.24 0.00 -- 77.5 61.0
06/17/2019 18:00 457.25 0.00 -- 80.9 61.5
06/17/2019 17:00 457.26 0.00 -- 82.0 62.0
06/17/2019 16:00 457.25 0.00 -- 80.9 61.8
06/17/2019 15:00 457.24 0.00 -- 79.3 61.3
06/17/2019 14:00 457.25 0.00 -- 78.0 62.5
06/17/2019 13:00 457.26 0.00 -- 75.8 62.3
06/17/2019 12:00 457.25 0.00 -- 74.8 62.0
06/17/2019 11:00 457.25 0.00 -- 71.5 62.0
06/17/2019 10:00 457.25 0.00 -- 66.2 62.3
06/17/2019 09:00 457.25 0.00 -- 61.4 62.0
06/17/2019 08:00 457.25 0.00 -- 54.9 62.0
06/17/2019 07:00 457.26 0.00 -- 53.0 63.0
06/17/2019 06:00 457.26 0.00 -- 54.4 63.3
06/17/2019 05:00 457.26 0.00 -- 55.3 63.0
06/17/2019 04:00 457.26 0.00 -- 57.4 64.0
06/17/2019 03:00 457.26 0.00 -- 59.8 64.0
06/17/2019 02:00 457.27 0.00 -- 61.7 64.0
06/17/2019 01:00 457.27 0.01 -- 62.9 64.0
06/17/2019 00:00 457.27 0.00 0.01 63.8 64.8
06/16/2019 23:00 457.27 0.00 -- 64.8 65.0
06/16/2019 22:00 457.28 0.02 -- 65.2 65.0
06/16/2019 21:00 457.27 0.00 -- 65.7 65.0
06/16/2019 20:00 457.28 0.00 -- 66.5 65.0
06/16/2019 19:00 457.28 0.01 -- 67.0 65.8
06/16/2019 18:00 457.28 0.00 -- 67.4 66.0
06/16/2019 17:00 457.28 0.00 -- 67.0 66.0
06/16/2019 16:00 457.29 0.00 -- 66.8 66.8
06/16/2019 15:00 457.29 0.00 -- 66.9 66.8
06/16/2019 14:00 457.29 0.00 -- 69.4 67.0
06/16/2019 13:00 457.29 0.00 -- 70.8 67.8
06/16/2019 12:00 457.30 0.00 -- 70.7 68.0
06/16/2019 11:00 457.30 0.00 -- 70.3 68.0
06/16/2019 10:00 457.30 0.00 -- 69.4 68.5
06/16/2019 09:00 457.30 0.00 -- 67.6 68.8
06/16/2019 08:00 457.30 0.00 -- 66.2 69.0
06/16/2019 07:00 457.31 0.00 -- 66.2 69.5
06/16/2019 06:00 457.31 0.00 -- 67.1 70.0
06/16/2019 05:00 457.32 0.00 -- 67.5 70.3
06/16/2019 04:00 457.31 0.00 -- 66.9 70.5
06/16/2019 03:00 457.31 0.00 -- 66.9 71.8
06/16/2019 02:00 457.33 0.00 -- 71.4 72.3
06/16/2019 01:00 457.34 0.00 -- 72.0 72.5
06/16/2019 00:00 457.34 0.00 0.03 72.3 72.3
06/15/2019 23:00 457.33 0.00 -- 72.9 73.0
06/15/2019 22:00 457.34 0.00 -- 74.8 73.8
06/15/2019 21:00 457.34 0.00 -- 76.2 73.8
06/15/2019 20:00 457.35 0.00 -- 77.8 75.5
06/15/2019 19:00 457.35 0.00 -- 80.5 75.0
06/15/2019 18:00 457.34 0.00 -- 80.3 75.3
06/15/2019 17:00 457.35 0.00 -- 79.7 75.8
06/15/2019 16:00 457.36 0.00 -- 79.8 76.3
06/15/2019 15:00 457.37 0.00 -- 75.9 76.8
06/15/2019 14:00 457.36 0.00 -- 74.7 77.0
06/15/2019 13:00 457.36 0.00 -- 71.7 77.3
06/15/2019 12:00 457.37 0.00 -- 69.4 78.0
06/15/2019 11:00 457.37 0.00 -- 66.7 77.3
06/15/2019 10:00 457.37 0.00 -- 64.1 77.5
06/15/2019 09:00 457.37 0.00 -- 58.5 77.5
06/15/2019 08:00 457.38 0.00 -- 56.5 78.5
06/15/2019 07:00 457.37 0.00 -- 55.2 78.8
06/15/2019 06:00 457.38 0.00 -- 54.1 79.8
06/15/2019 05:00 457.39 0.00 -- 53.3 79.8
06/15/2019 04:00 457.39 0.00 -- 54.7 80.5
06/15/2019 03:00 457.38 0.00 -- 55.2 80.5
06/15/2019 02:00 457.39 0.00 -- 56.9 81.0
06/15/2019 01:00 457.39 0.00 -- 58.8 81.0
06/15/2019 00:00 457.40 0.00 0.00 59.5 82.0
06/14/2019 23:00 457.40 0.00 -- 60.7 82.3
06/14/2019 22:00 457.41 0.00 -- 61.1 83.3
06/14/2019 21:00 457.41 0.00 -- 62.4 83.5
06/14/2019 20:00 457.42 0.00 -- 65.1 84.0
06/14/2019 19:00 457.41 0.00 -- 65.1 83.8
06/14/2019 18:00 457.41 0.00 -- 64.9 83.8
06/14/2019 17:00 457.43 0.01 -- 64.2 84.5
06/14/2019 16:00 457.42 0.00 -- 64.8 84.3
06/14/2019 15:00 457.42 0.00 -- 66.5 84.3
06/14/2019 14:00 457.41 0.00 -- 66.2 84.3
06/14/2019 13:00 457.43 0.00 -- 64.7 84.5
06/14/2019 12:00 457.44 0.00 -- 62.2 86.0
06/14/2019 11:00 457.41 0.00 -- 59.6 84.5
06/14/2019 10:00 457.42 0.00 -- 56.6 84.5
06/14/2019 09:00 457.42 0.01 -- 54.6 83.8
06/14/2019 08:00 457.41 0.00 -- 52.4 83.0
06/14/2019 07:00 457.41 0.00 -- 50.1 83.0
06/14/2019 06:00 457.41 0.00 -- 49.6 83.3
06/14/2019 05:00 457.41 0.00 -- 48.2 82.8
06/14/2019 04:00 457.41 0.00 -- 48.0 82.5
06/14/2019 03:00 457.41 0.00 -- 48.3 83.0
06/14/2019 02:00 457.40 0.00 -- 50.2 82.5
06/14/2019 01:00 457.41 0.00 -- 49.8 83.0
06/14/2019 00:00 457.41 0.00 0.02 51.0 82.3
06/13/2019 23:00 457.40 0.00 -- 52.8 82.3
06/13/2019 22:00 457.40 0.00 -- 52.6 82.5
06/13/2019 21:00 457.40 0.01 -- 52.0 82.5
06/13/2019 20:00 457.41 0.01 -- 51.3 83.0
06/13/2019 19:00 457.41 0.15 -- 51.7 82.5
06/13/2019 18:00 457.40 0.03 -- 51.3 81.5
06/13/2019 17:00 457.40 0.01 -- 51.5 81.5
06/13/2019 16:00 457.40 0.03 -- 54.0 82.0
06/13/2019 15:00 457.40 0.06 -- 55.1 82.3
06/13/2019 14:00 457.40 0.01 -- 58.0 82.3
06/13/2019 13:00 457.41 0.01 -- 58.1 83.0
06/13/2019 12:00 457.41 0.00 -- 59.2 84.0
06/13/2019 11:00 457.42 0.00 -- 59.3 84.5
06/13/2019 10:00 457.42 0.00 -- 57.9 85.5
06/13/2019 09:00 457.43 0.00 -- 56.1 86.0
06/13/2019 08:00 457.44 0.00 -- 54.0 87.3
06/13/2019 07:00 457.44 0.00 -- 52.5 87.8
06/13/2019 06:00 457.45 0.00 -- 52.9 89.0
06/13/2019 05:00 457.45 0.00 -- 53.2 89.5
06/13/2019 04:00 457.46 0.00 -- 53.4 90.5
06/13/2019 03:00 457.47 0.00 -- 53.3 92.3
06/13/2019 02:00 457.48 0.00 -- 54.6 93.0
06/13/2019 01:00 457.48 0.00 -- 57.6 93.8
06/13/2019 00:00 457.49 0.00 0.32 58.7 95.0
06/12/2019 23:00 457.50 0.00 -- 61.3 96.3
06/12/2019 22:00 457.51 0.00 -- 65.7 97.5
06/12/2019 21:00 457.51 0.00 -- 73.3 99.0
06/12/2019 20:00 457.53 0.00 -- 75.8 99.8
06/12/2019 19:00 457.53 0.00 -- 78.1 101.5
06/12/2019 18:00 457.55 0.00 -- 77.7 102.5
06/12/2019 17:00 457.54 0.00 -- 78.1 102.0
06/12/2019 16:00 457.55 0.00 -- 77.2 103.5
06/12/2019 15:00 457.55 0.00 -- 76.9 103.5
06/12/2019 14:00 457.54 0.00 -- 74.6 104.0
06/12/2019 13:00 457.55 0.00 -- 74.5 104.0
06/12/2019 12:00 457.55 0.00 -- 72.4 104.0
06/12/2019 11:00 457.55 0.00 -- 69.8 105.0
06/12/2019 10:00 457.56 0.00 -- 66.3 105.0
06/12/2019 09:00 457.56 0.00 -- 60.6 105.0
06/12/2019 08:00 457.57 0.00 -- 58.0 106.3
06/12/2019 07:00 457.56 0.00 -- 50.7 106.0
06/12/2019 06:00 457.56 0.00 -- 52.6 106.3
06/12/2019 05:00 457.56 0.00 -- 54.4 106.3
06/12/2019 04:00 457.57 0.00 -- 51.6 106.3
06/12/2019 03:00 457.57 0.00 -- 51.8 105.5
06/12/2019 02:00 457.56 0.00 -- 54.1 105.0
06/12/2019 01:00 457.55 0.00 -- 56.9 104.0
06/12/2019 00:00 457.55 0.00 0.00 60.9 103.5
06/11/2019 23:00 457.56 0.00 -- 61.6 103.3
06/11/2019 22:00 457.54 0.00 -- 62.5 102.0
06/11/2019 21:00 457.52 0.00 -- 64.0 99.8
06/11/2019 20:00 457.52 0.00 -- 65.7 98.5
06/11/2019 19:00 457.49 0.00 -- 66.3 95.5
06/11/2019 18:00 457.50 0.00 -- 65.7 93.8
06/11/2019 17:00 457.46 0.00 -- 71.1 91.0
06/11/2019 16:00 457.46 0.00 -- 68.9 88.0
06/11/2019 15:00 457.43 0.00 -- 68.6 85.5
06/11/2019 14:00 457.41 0.00 -- 67.6 82.3
06/11/2019 13:00 457.39 0.01 -- 65.6 79.3
06/11/2019 12:00 457.37 0.00 -- 64.7 76.0
06/11/2019 11:00 457.35 0.00 -- 63.3 73.8
06/11/2019 10:00 457.33 0.05 -- 62.4 71.3
06/11/2019 09:00 457.31 0.49 -- 61.9 67.3
06/11/2019 08:00 457.25 0.12 -- 60.7 61.5
06/11/2019 07:00 457.24 0.14 -- 60.5 60.0
06/11/2019 06:00 457.23 0.19 -- 60.0 58.5
06/11/2019 05:00 457.21 0.22 -- 60.8 56.0
06/11/2019 04:00 457.19 0.15 -- 60.9 54.3
06/11/2019 03:00 457.18 0.02 -- 62.5 53.0
06/11/2019 02:00 457.18 0.00 -- 64.6 53.8
06/11/2019 01:00 457.18 0.00 -- 64.9 54.0
06/11/2019 00:00 457.19 0.00 1.39 65.6 54.0
06/10/2019 23:00 457.19 0.00 -- 65.5 54.0
06/10/2019 22:00 457.19 0.00 -- 70.2 55.0
06/10/2019 21:00 457.19 0.00 -- 74.9 55.0
06/10/2019 20:00 457.20 0.00 -- 79.4 55.8
06/10/2019 19:00 457.20 0.00 -- 82.0 55.8
06/10/2019 18:00 457.20 0.00 -- 84.8 56.0
06/10/2019 17:00 457.20 0.00 -- 83.2 56.8
06/10/2019 16:00 457.20 0.00 -- 83.3 56.5
06/10/2019 15:00 457.21 0.00 -- 84.9 57.0
06/10/2019 14:00 457.22 0.00 -- 83.2 57.8
06/10/2019 13:00 457.20 0.00 -- 83.8 56.5
06/10/2019 12:00 457.21 0.00 -- 82.4 56.8
06/10/2019 11:00 457.21 0.00 -- 78.3 56.5
06/10/2019 10:00 457.21 0.00 -- 73.6 56.8
06/10/2019 09:00 457.21 0.00 -- 65.5 57.0
06/10/2019 08:00 457.21 0.00 -- 58.0 57.3
06/10/2019 07:00 457.21 0.00 -- 54.1 57.8
06/10/2019 06:00 457.22 0.00 -- 53.5 58.0
06/10/2019 05:00 457.22 0.00 -- 54.5 58.3
06/10/2019 04:00 457.23 0.00 -- 56.4 58.8
06/10/2019 03:00 457.23 0.00 -- 57.5 59.0
06/10/2019 02:00 457.23 0.00 -- 58.9 59.0
06/10/2019 01:00 457.23 0.00 -- 60.6 59.5
06/10/2019 00:00 457.23 0.00 0.00 62.4 59.8
06/09/2019 23:00 457.24 0.00 -- 65.8 60.3
06/09/2019 22:00 457.24 0.00 -- 72.5 61.0
06/09/2019 21:00 457.25 0.00 -- 77.7 61.0
06/09/2019 20:00 457.25 0.00 -- 80.7 61.8
06/09/2019 19:00 457.26 0.00 -- 81.8 62.5
06/09/2019 18:00 457.25 0.00 -- 83.5 62.3
06/09/2019 17:00 457.25 0.00 -- 85.0 62.5
06/09/2019 16:00 457.26 0.00 -- 85.2 62.8
06/09/2019 15:00 457.26 0.00 -- 82.1 62.8
06/09/2019 14:00 457.26 0.00 -- 78.4 63.0
06/09/2019 13:00 457.26 0.00 -- 76.8 63.5
06/09/2019 12:00 457.26 0.00 -- 73.2 63.3
06/09/2019 11:00 457.26 0.00 -- 70.2 64.0
06/09/2019 10:00 457.27 0.00 -- 64.2 64.0
06/09/2019 09:00 457.27 0.00 -- 58.1 64.3
06/09/2019 08:00 457.27 0.00 -- 52.0 65.0
06/09/2019 07:00 457.28 0.00 -- 48.5 65.0
06/09/2019 06:00 457.28 0.00 -- 49.2 66.0
06/09/2019 05:00 457.28 0.00 -- 50.0 66.3
06/09/2019 04:00 457.29 0.00 -- 49.5 67.0
06/09/2019 03:00 457.29 0.00 -- 50.9 67.5
06/09/2019 02:00 457.30 0.00 -- 51.3 68.0
06/09/2019 01:00 457.30 0.00 -- 53.7 68.8
06/09/2019 00:00 457.30 0.00 0.00 54.8 69.0
06/08/2019 23:00 457.31 0.00 -- 56.9 69.3
06/08/2019 22:00 457.31 0.00 -- 63.4 70.0
06/08/2019 21:00 457.32 0.00 -- 71.1 70.0
06/08/2019 20:00 457.32 0.00 -- 75.8 70.5
06/08/2019 19:00 457.32 0.00 -- 77.7 71.3
06/08/2019 18:00 457.32 0.00 -- 80.4 71.8
06/08/2019 17:00 457.33 0.00 -- 81.1 72.0
06/08/2019 16:00 457.33 0.00 -- 79.2 72.3
06/08/2019 15:00 457.33 0.00 -- 79.1 72.8
06/08/2019 14:00 457.34 0.00 -- 77.7 73.8
06/08/2019 13:00 457.34 0.00 -- 75.6 74.3
06/08/2019 12:00 457.35 0.00 -- 72.7 74.5
06/08/2019 11:00 457.35 0.00 -- 70.9 75.0
06/08/2019 10:00 457.35 0.00 -- 67.3 75.3
06/08/2019 09:00 457.35 0.00 -- 60.8 75.8
06/08/2019 08:00 457.36 0.00 -- 55.0 76.3
06/08/2019 07:00 457.36 0.00 -- 50.7 77.3
06/08/2019 06:00 457.37 0.00 -- 49.3 77.8
06/08/2019 05:00 457.38 0.00 -- 52.3 79.0
06/08/2019 04:00 457.38 0.00 -- 51.3 79.0
06/08/2019 03:00 457.38 0.00 -- 54.2 80.3
06/08/2019 02:00 457.39 0.00 -- 56.9 81.0
06/08/2019 01:00 457.39 0.00 -- 59.8 81.3
06/08/2019 00:00 457.40 0.00 0.00 60.7 82.0
06/07/2019 23:00 457.40 0.00 -- 62.9 82.3
06/07/2019 22:00 457.41 0.00 -- 66.0 83.0
06/07/2019 21:00 457.41 0.00 -- 73.2 83.3
06/07/2019 20:00 457.42 0.00 -- 77.0 84.3
06/07/2019 19:00 457.42 0.00 -- 78.7 84.5
06/07/2019 18:00 457.43 0.00 -- 82.2 86.0
06/07/2019 17:00 457.43 0.00 -- 81.1 86.0
06/07/2019 16:00 457.43 0.00 -- 80.7 86.0
06/07/2019 15:00 457.43 0.00 -- 78.9 87.0
06/07/2019 14:00 457.43 0.00 -- 75.8 87.8
06/07/2019 13:00 457.44 0.00 -- 76.7 88.3
06/07/2019 12:00 457.45 0.00 -- 71.5 88.3
06/07/2019 11:00 457.45 0.00 -- 69.9 89.0
06/07/2019 10:00 457.45 0.00 -- 65.7 88.5
06/07/2019 09:00 457.45 0.00 -- 59.0 89.3
06/07/2019 08:00 457.45 0.00 -- 51.3 89.5
06/07/2019 07:00 457.46 0.00 -- 47.5 90.0
06/07/2019 06:00 457.46 0.00 -- 47.1 90.3
06/07/2019 05:00 457.46 0.00 -- 48.0 90.3
06/07/2019 04:00 457.47 0.00 -- 49.8 90.5
06/07/2019 03:00 457.46 0.00 -- 51.0 90.8
06/07/2019 02:00 457.46 0.00 -- 52.7 90.8
06/07/2019 01:00 457.46 0.00 -- 54.6 90.8
06/07/2019 00:00 457.46 0.00 0.00 57.4 90.3
06/06/2019 23:00 457.46 0.00 -- 62.3 90.0
06/06/2019 22:00 457.45 0.00 -- 67.3 89.0
06/06/2019 21:00 457.45 0.00 -- 69.8 89.3
06/06/2019 20:00 457.45 0.00 -- 74.2 88.8
06/06/2019 19:00 457.44 0.00 -- 77.1 87.8
06/06/2019 18:00 457.44 0.00 -- 79.5 86.8
06/06/2019 17:00 457.43 0.00 -- 77.3 86.5
06/06/2019 16:00 457.43 0.00 -- 80.7 84.8
06/06/2019 15:00 457.41 0.00 -- 76.4 83.5
06/06/2019 14:00 457.39 0.00 -- 73.9 80.3
06/06/2019 13:00 457.39 0.00 -- 70.0 79.5
06/06/2019 12:00 457.38 0.00 -- 71.5 78.3
06/06/2019 11:00 457.37 0.00 -- 65.7 76.8
06/06/2019 10:00 457.36 0.00 -- 61.7 75.5
06/06/2019 09:00 457.35 0.02 -- 58.9 73.8
06/06/2019 08:00 457.33 0.01 -- 58.6 72.8
06/06/2019 07:00 457.33 0.09 -- 58.0 71.0
06/06/2019 06:00 457.31 0.00 -- 57.7 69.5
06/06/2019 05:00 457.31 -- -- 58.4 68.8
06/06/2019 04:00 457.30 -- -- 58.3 67.0
06/06/2019 03:00 457.28 0.04 -- 58.8 65.0
06/06/2019 02:00 457.27 0.18 -- 59.6 64.0
06/06/2019 01:00 457.25 0.08 -- 60.7 62.0
06/06/2019 00:00 457.25 0.05 -- 61.5 61.7
06/05/2019 23:00 457.24 0.01 -- 62.9 61.0
06/05/2019 22:00 457.24 0.02 -- 63.0 61.0
06/05/2019 21:00 457.24 0.00 -- 63.9 60.5
06/05/2019 20:00 457.24 0.00 -- 66.5 60.8
06/05/2019 19:00 457.24 0.00 -- 69.0 60.5
06/05/2019 18:00 457.24 0.00 -- 70.6 60.5
06/05/2019 17:00 457.24 0.00 -- 68.0 60.5
06/05/2019 16:00 457.24 0.00 -- 68.3 60.3
06/05/2019 15:00 457.24 0.00 -- 65.3 60.0
06/05/2019 14:00 457.23 0.00 -- 62.6 60.0
06/05/2019 13:00 457.24 0.00 -- 59.7 60.0
06/05/2019 12:00 457.23 0.00 -- 57.1 60.0
06/05/2019 11:00 457.24 0.00 -- 56.0 60.3
06/05/2019 10:00 457.23 0.00 -- 53.7 60.0
06/05/2019 09:00 457.24 0.00 -- 52.2 60.5
06/05/2019 08:00 457.24 0.01 -- 51.4 61.0
06/05/2019 07:00 457.24 0.03 -- 50.9 60.5
06/05/2019 06:00 457.25 0.05 -- 50.5 60.5
06/05/2019 05:00 457.24 0.04 -- 50.1 60.0
06/05/2019 04:00 457.24 0.01 -- 51.1 60.0
06/05/2019 03:00 457.23 0.00 -- 53.6 61.0
06/05/2019 02:00 457.24 0.00 -- 54.7 60.5
06/05/2019 01:00 457.24 0.00 -- 55.4 61.5
06/05/2019 00:00 457.24 0.00 0.22 56.2 60.5
06/04/2019 23:00 457.25 0.00 -- 58.1 61.3
06/04/2019 22:00 457.26 0.00 -- 60.1 62.5
06/04/2019 21:00 457.25 0.00 -- 62.2 61.8
06/04/2019 20:00 457.26 0.00 -- 63.7 62.5
06/04/2019 19:00 457.25 0.00 -- 65.1 63.3
06/04/2019 18:00 457.27 0.00 -- 65.6 62.8
06/04/2019 17:00 457.27 0.00 -- 65.2 63.8
06/04/2019 16:00 457.26 0.00 -- 65.0 62.5
06/04/2019 15:00 457.26 0.00 -- 64.3 63.5
06/04/2019 14:00 457.27 0.00 -- 63.3 65.0
06/04/2019 13:00 457.27 0.00 -- 59.5 64.8
06/04/2019 12:00 457.27 0.00 -- 60.0 64.3
06/04/2019 11:00 457.26 0.00 -- 59.6 64.5
06/04/2019 10:00 457.27 0.00 -- 59.0 64.3
06/04/2019 09:00 457.27 0.00 -- 52.7 64.0
06/04/2019 08:00 457.27 0.00 -- 49.6 64.5
06/04/2019 07:00 457.27 0.00 -- 44.9 64.5
06/04/2019 06:00 457.27 0.00 -- 46.3 64.8
06/04/2019 05:00 457.27 0.00 -- 49.9 64.5
06/04/2019 04:00 457.29 0.00 -- 51.6 65.5
06/04/2019 03:00 457.29 0.00 -- 52.7 66.5
06/04/2019 02:00 457.28 0.00 -- 53.2 66.3
06/04/2019 01:00 457.28 0.00 -- 52.6 66.5
06/04/2019 00:00 457.28 0.00 0.00 51.9 66.5
06/03/2019 23:00 457.30 0.00 -- 53.4 66.5
06/03/2019 22:00 457.29 0.00 -- 52.1 66.5
06/03/2019 21:00 457.30 0.00 -- 54.5 68.0
06/03/2019 20:00 457.30 0.00 -- 56.6 69.0
06/03/2019 19:00 457.29 0.00 -- 59.6 68.0
06/03/2019 18:00 457.31 0.00 -- 61.9 69.3
06/03/2019 17:00 457.30 0.00 -- 63.6 69.5
06/03/2019 16:00 457.30 0.00 -- 65.7 69.3
06/03/2019 15:00 457.32 0.00 -- 66.8 71.0
06/03/2019 14:00 457.32 0.00 -- 66.3 70.3
06/03/2019 13:00 457.31 0.00 -- 65.3 69.8
06/03/2019 12:00 457.29 0.00 -- 63.1 67.8
06/03/2019 11:00 457.31 0.00 -- 61.4 68.3
06/03/2019 10:00 457.29 0.00 -- 57.6 68.5
06/03/2019 09:00 457.30 0.00 -- 55.4 68.0
06/03/2019 08:00 457.30 0.00 -- 50.5 68.5
06/03/2019 07:00 457.31 0.00 -- 48.6 68.8
06/03/2019 06:00 457.30 0.00 -- 49.9 68.3
06/03/2019 05:00 457.31 0.00 -- 52.9 69.0
06/03/2019 04:00 457.30 0.00 -- 55.3 68.5
06/03/2019 03:00 457.30 0.01 -- 57.0 68.5
06/03/2019 02:00 457.30 0.07 -- 57.0 68.3
06/03/2019 01:00 457.30 0.00 -- 57.6 68.0
06/03/2019 00:00 457.30 0.00 0.08 58.2 68.0
06/02/2019 23:00 457.30 0.00 -- 58.6 68.3
06/02/2019 22:00 457.30 0.00 -- 58.7 68.0
06/02/2019 21:00 457.30 0.00 -- 58.7 69.0
06/02/2019 20:00 457.30 0.09 -- 59.2 68.8
06/02/2019 19:00 457.30 0.00 -- 60.7 68.0
06/02/2019 18:00 457.30 0.00 -- 60.5 68.0
06/02/2019 17:00 457.30 0.00 -- 60.8 68.0
06/02/2019 16:00 457.30 0.00 -- 60.7 68.8
06/02/2019 15:00 457.30 0.00 -- 58.7 69.0
06/02/2019 14:00 457.30 0.00 -- 58.0 69.0
06/02/2019 13:00 457.31 0.00 -- 57.3 69.0
06/02/2019 12:00 457.31 0.00 -- 55.7 69.0
06/02/2019 11:00 457.31 0.00 -- 55.3 69.5
06/02/2019 10:00 457.31 0.00 -- 54.1 70.0
06/02/2019 09:00 457.31 0.00 -- 52.9 70.0
06/02/2019 08:00 457.32 0.00 -- 52.8 70.3
06/02/2019 07:00 457.32 0.00 -- 53.1 71.0
06/02/2019 06:00 457.32 0.00 -- 52.7 71.0
06/02/2019 05:00 457.32 0.00 -- 53.0 71.8
06/02/2019 04:00 457.33 0.00 -- 53.3 72.0
06/02/2019 03:00 457.33 0.00 -- 54.1 72.5
06/02/2019 02:00 457.33 0.00 -- 53.5 72.8
06/02/2019 01:00 457.33 0.00 -- 53.7 73.0
06/02/2019 00:00 457.34 0.00 0.09 54.6 73.5
06/01/2019 23:00 457.34 0.00 -- 58.0 74.3
06/01/2019 22:00 457.35 0.00 -- 60.1 75.0
06/01/2019 21:00 457.35 0.00 -- 64.7 75.0
06/01/2019 20:00 457.35 0.00 -- 67.7 75.3
06/01/2019 19:00 457.35 0.00 -- 70.4 76.3
06/01/2019 18:00 457.36 0.00 -- 71.7 76.0
06/01/2019 17:00 457.36 0.00 -- 69.6 76.8
06/01/2019 16:00 457.37 0.00 -- 70.3 77.0
06/01/2019 15:00 457.37 0.00 -- 68.3 77.8
06/01/2019 14:00 457.37 0.00 -- 67.0 78.5
06/01/2019 13:00 457.38 0.00 -- 60.0 79.0
06/01/2019 12:00 457.38 0.00 -- 54.9 79.5
06/01/2019 11:00 457.39 0.00 -- 53.1 80.5
06/01/2019 10:00 457.39 0.00 -- 52.1 81.0
06/01/2019 09:00 457.40 0.00 -- 51.6 82.5
06/01/2019 08:00 457.41 0.00 -- 48.4 83.3
06/01/2019 07:00 457.42 0.00 -- 46.1 84.3
06/01/2019 06:00 457.42 0.00 -- 46.2 85.3
06/01/2019 05:00 457.43 0.00 -- 47.5 86.3
06/01/2019 04:00 457.44 0.00 -- 48.7 87.8
06/01/2019 03:00 457.45 0.00 -- 52.3 89.3
06/01/2019 02:00 457.46 0.00 -- 54.9 90.3
06/01/2019 01:00 457.47 0.00 -- 55.1 92.0
06/01/2019 00:00 457.47 0.00 0.00 56.2 94.0
05/31/2019 23:00 457.49 0.00 -- 54.7 95.3
05/31/2019 22:00 457.51 0.00 -- 58.4 96.8
05/31/2019 21:00 457.51 0.00 -- 64.7 99.0
05/31/2019 20:00 457.52 0.00 -- 69.1 100.8
05/31/2019 19:00 457.54 0.00 -- 70.8 102.3
05/31/2019 18:00 457.55 0.00 -- 71.5 104.3
05/31/2019 17:00 457.57 0.00 -- 73.3 107.3
05/31/2019 16:00 457.58 0.00 -- 73.1 109.3
05/31/2019 15:00 457.59 0.00 -- 72.2 112.0
05/31/2019 14:00 457.62 0.00 -- 68.1 115.8
05/31/2019 13:00 457.65 0.00 -- 68.0 119.5
05/31/2019 12:00 457.67 0.00 -- 66.2 64.3
05/31/2019 11:00 457.65 0.00 -- 65.0 63.8
05/31/2019 10:00 457.65 0.00 -- 63.7 63.5
05/31/2019 09:00 457.65 0.00 -- 61.3 64.3
05/31/2019 08:00 457.66 0.00 -- 54.2 64.3
05/31/2019 07:00 457.66 0.00 -- 52.7 65.3
05/31/2019 06:00 457.67 0.00 -- 52.9 66.0
05/31/2019 05:00 457.67 0.00 -- 54.0 66.3
05/31/2019 04:00 457.67 0.00 -- 55.3 66.8
05/31/2019 03:00 457.68 0.00 -- 55.9 67.3
05/31/2019 02:00 457.69 0.00 -- 57.1 69.8
05/31/2019 01:00 457.69 0.00 -- 59.0 71.5
05/31/2019 00:00 457.70 0.00 0.00 59.0 76.0
05/30/2019 23:00 457.70 0.00 -- 60.6 76.5
05/30/2019 22:00 457.69 0.00 -- 62.3 77.5
05/30/2019 21:00 457.71 0.00 -- 64.3 77.0
05/30/2019 20:00 457.71 0.00 -- 67.8 78.8
05/30/2019 19:00 457.72 0.00 -- 70.0 78.8
05/30/2019 18:00 457.73 0.00 -- 70.6 79.5
05/30/2019 17:00 457.73 0.00 -- 68.9 79.5
05/30/2019 16:00 457.72 0.00 -- 67.8 80.0
05/30/2019 15:00 457.73 0.00 -- 64.9 80.0
05/30/2019 14:00 457.73 0.00 -- 60.8 80.3
05/30/2019 13:00 457.73 0.00 -- 58.3 80.5
05/30/2019 12:00 457.73 0.00 -- 55.9 81.0
05/30/2019 11:00 457.73 0.00 -- 54.6 81.0
05/30/2019 10:00 457.74 0.00 -- 53.7 81.8
05/30/2019 09:00 457.74 0.00 -- 52.9 82.8
05/30/2019 08:00 457.74 0.00 -- 51.6 83.3
05/30/2019 07:00 457.75 0.00 -- 51.0 83.5
05/30/2019 06:00 457.75 0.00 -- 51.0 83.5
05/30/2019 05:00 457.75 0.00 -- 50.9 84.8
05/30/2019 04:00 457.76 0.00 -- 51.0 85.0
05/30/2019 03:00 457.75 0.00 -- 51.4 84.8
05/30/2019 02:00 457.76 0.00 -- 51.9 85.0
05/30/2019 01:00 457.76 0.00 -- 52.0 85.5
05/30/2019 00:00 457.76 0.00 0.00 52.4 86.3
05/29/2019 23:00 457.77 0.00 -- 53.3 86.3
05/29/2019 22:00 457.76 0.00 -- 54.4 86.0
05/29/2019 21:00 457.76 0.00 -- 55.3 86.0
05/29/2019 20:00 457.77 0.00 -- 55.8 86.3
05/29/2019 19:00 457.76 0.00 -- 57.0 86.0
05/29/2019 18:00 457.76 0.00 -- 56.6 85.8
05/29/2019 17:00 457.76 0.00 -- 57.0 85.8
05/29/2019 16:00 457.76 0.00 -- 56.4 85.5
05/29/2019 15:00 457.76 0.00 -- 56.2 84.5
05/29/2019 14:00 457.75 0.00 -- 56.4 83.5
05/29/2019 13:00 457.74 0.00 -- 53.8 82.3
05/29/2019 12:00 457.76 0.00 -- 53.0 82.8
05/29/2019 11:00 457.74 0.00 -- 49.2 81.0
05/29/2019 10:00 457.73 0.00 -- 47.7 80.0
05/29/2019 09:00 457.72 0.00 -- 45.4 78.8
05/29/2019 08:00 457.71 0.00 -- 43.7 78.5
05/29/2019 07:00 457.70 0.00 -- 44.3 76.0
05/29/2019 06:00 457.70 0.01 -- 43.7 71.8
05/29/2019 05:00 457.69 0.00 -- 43.6 67.0
05/29/2019 04:00 457.68 0.00 -- 42.9 66.8
05/29/2019 03:00 457.66 0.00 -- 43.6 64.5
05/29/2019 02:00 457.65 0.01 -- 43.4 62.8
05/29/2019 01:00 457.64 0.01 -- 42.9 61.3
05/29/2019 00:00 457.63 0.01 0.03 43.7 60.8
05/28/2019 23:00 457.62 0.04 -- 43.2 60.0
05/28/2019 22:00 457.61 0.07 -- 43.1 58.5
05/28/2019 21:00 457.60 0.09 -- 43.2 57.0
05/28/2019 20:00 457.59 0.08 -- 43.4 55.0
05/28/2019 19:00 457.58 0.06 -- 44.7 54.5
05/28/2019 18:00 457.58 0.14 -- 43.8 53.5
05/28/2019 17:00 457.57 0.07 -- 46.1 52.8
05/28/2019 16:00 457.56 0.07 -- 47.4 51.8
05/28/2019 15:00 457.56 0.16 -- 47.2 52.0
05/28/2019 14:00 457.55 0.03 -- 51.1 50.8
05/28/2019 13:00 457.55 0.00 -- 54.3 51.0
05/28/2019 12:00 457.55 0.00 -- 55.4 51.0
05/28/2019 11:00 457.55 0.00 -- 54.0 51.0
05/28/2019 10:00 457.56 0.00 -- 52.9 51.8
05/28/2019 09:00 457.56 0.00 -- 49.8 52.0
05/28/2019 08:00 457.56 0.00 -- 46.4 52.0
05/28/2019 07:00 457.57 0.00 -- 42.9 52.5
05/28/2019 06:00 457.57 0.00 -- 45.3 52.8
05/28/2019 05:00 457.57 0.00 -- 45.0 53.3
05/28/2019 04:00 457.58 0.00 -- 43.4 54.0
05/28/2019 03:00 457.57 0.00 -- 44.6 53.8
05/28/2019 02:00 457.58 0.00 -- 48.8 54.3
05/28/2019 01:00 457.58 0.00 -- 48.5 54.5
05/28/2019 00:00 457.59 0.00 0.82 52.5 55.3
05/27/2019 23:00 457.59 0.00 -- 55.9 55.3
05/27/2019 22:00 457.59 0.00 -- 57.5 55.8
05/27/2019 21:00 457.59 0.00 -- 62.1 56.3
05/27/2019 20:00 457.60 0.00 -- 64.8 56.3
05/27/2019 19:00 457.60 0.00 -- 65.0 57.3
05/27/2019 18:00 457.60 0.00 -- 67.0 57.8
05/27/2019 17:00 457.62 0.00 -- 69.3 58.0
05/27/2019 16:00 457.62 0.00 -- 73.1 58.5
05/27/2019 15:00 457.60 0.00 -- 74.7 59.0
05/27/2019 14:00 457.61 0.00 -- 73.0 59.3
05/27/2019 13:00 457.62 0.00 -- 71.3 59.0
05/27/2019 12:00 457.62 0.00 -- 71.2 59.8
05/27/2019 11:00 457.62 0.00 -- 69.5 59.8
05/27/2019 10:00 457.62 0.00 -- 67.1 59.5
05/27/2019 09:00 457.62 0.00 -- 62.3 60.0
05/27/2019 08:00 457.63 0.00 -- 54.3 62.0
05/27/2019 07:00 457.62 0.00 -- 50.3 61.5
05/27/2019 06:00 457.64 0.00 -- 51.1 62.0
05/27/2019 05:00 457.63 0.00 -- 52.9 61.5
05/27/2019 04:00 457.66 0.00 -- 54.0 62.0
05/27/2019 03:00 457.64 0.00 -- 55.9 61.5
05/27/2019 02:00 457.64 0.00 -- 57.0 61.8
05/27/2019 01:00 457.65 0.00 -- 59.8 62.0
05/27/2019 00:00 457.64 0.00 0.00 63.1 62.3
05/26/2019 23:00 457.64 0.00 -- 65.4 62.3
05/26/2019 22:00 457.64 0.00 -- 71.0 62.8
05/26/2019 21:00 457.63 0.00 -- 72.8 62.0
05/26/2019 20:00 457.65 0.00 -- 75.9 62.3
05/26/2019 19:00 457.64 0.00 -- 78.0 62.3
05/26/2019 18:00 457.66 0.00 -- 78.0 63.8
05/26/2019 17:00 457.64 0.00 -- 80.1 62.8
05/26/2019 16:00 457.65 0.00 -- 83.7 64.5
05/26/2019 15:00 457.63 0.00 -- 82.2 63.3
05/26/2019 14:00 457.69 0.00 -- 78.3 64.0
05/26/2019 13:00 457.63 0.00 -- 76.1 61.3
05/26/2019 12:00 457.64 0.00 -- 72.9 61.3
05/26/2019 11:00 457.63 0.00 -- 68.1 61.0
05/26/2019 10:00 457.63 0.00 -- 62.6 60.5
05/26/2019 09:00 457.63 0.00 -- 59.3 60.5
05/26/2019 08:00 457.63 0.00 -- 55.7 60.8
05/26/2019 07:00 457.62 0.00 -- 55.1 59.5
05/26/2019 06:00 457.62 0.00 -- 54.9 58.8
05/26/2019 05:00 457.61 0.00 -- 54.8 58.3
05/26/2019 04:00 457.61 0.03 -- 54.5 58.5
05/26/2019 03:00 457.61 0.07 -- 55.3 58.0
05/26/2019 02:00 457.61 0.24 -- 54.5 56.5
05/26/2019 01:00 457.59 0.03 -- 56.9 55.0
05/26/2019 00:00 457.59 0.00 0.37 59.1 56.0
05/25/2019 23:00 457.59 0.00 -- 60.4 56.3
05/25/2019 22:00 457.59 0.00 -- 64.0 56.3
05/25/2019 21:00 457.60 0.00 -- 66.8 56.0
05/25/2019 20:00 457.60 0.00 -- 70.1 56.0
05/25/2019 19:00 457.60 0.00 -- 71.9 56.5
05/25/2019 18:00 457.60 0.00 -- 72.0 57.3
05/25/2019 17:00 457.60 0.00 -- 72.8 57.5
05/25/2019 16:00 457.60 0.00 -- 73.8 57.3
05/25/2019 15:00 457.60 0.00 -- 73.5 57.3
05/25/2019 14:00 457.61 0.00 -- 74.5 57.3
05/25/2019 13:00 457.61 0.00 -- 70.7 57.5
05/25/2019 12:00 457.61 0.00 -- 69.8 57.8
05/25/2019 11:00 457.61 0.00 -- 67.1 58.0
05/25/2019 10:00 457.61 0.00 -- 62.5 58.0
05/25/2019 09:00 457.62 0.00 -- 54.9 58.5
05/25/2019 08:00 457.61 0.00 -- 47.1 58.8
05/25/2019 07:00 457.61 0.00 -- 43.0 58.5
05/25/2019 06:00 457.62 0.00 -- 43.5 59.8
05/25/2019 05:00 457.64 0.00 -- 44.7 60.5
05/25/2019 04:00 457.62 0.00 -- 42.5 59.8
05/25/2019 03:00 457.64 0.00 -- 45.7 61.0
05/25/2019 02:00 457.65 0.00 -- 46.4 62.0
05/25/2019 01:00 457.64 0.00 -- 48.1 62.8
05/25/2019 00:00 457.63 0.00 0.00 49.2 62.0
05/24/2019 23:00 457.64 0.00 -- 50.8 62.5
05/24/2019 22:00 457.64 0.00 -- 54.4 61.8
05/24/2019 21:00 457.63 0.00 -- 57.8 61.0
05/24/2019 20:00 457.63 0.00 -- 60.6 61.5
05/24/2019 19:00 457.64 0.00 -- 60.7 61.5
05/24/2019 18:00 457.63 0.00 -- 61.6 62.3
05/24/2019 17:00 457.63 0.00 -- 61.3 61.8
05/24/2019 16:00 457.64 0.00 -- 61.0 62.0
05/24/2019 15:00 457.63 0.00 -- 60.0 60.0
05/24/2019 14:00 457.63 0.00 -- 60.7 60.3
05/24/2019 13:00 457.64 0.00 -- 61.5 61.5
05/24/2019 12:00 457.64 0.00 -- 60.4 61.5
05/24/2019 11:00 457.63 0.00 -- 60.7 61.0
05/24/2019 10:00 457.62 0.00 -- 61.3 61.5
05/24/2019 09:00 457.63 0.00 -- 62.3 62.0
05/24/2019 08:00 457.63 0.00 -- 56.4 60.5
05/24/2019 07:00 457.63 0.00 -- 55.3 60.8
05/24/2019 06:00 457.64 0.00 -- 55.0 61.3
05/24/2019 05:00 457.62 0.00 -- 56.1 60.3
05/24/2019 04:00 457.63 0.00 -- 56.7 60.5
05/24/2019 03:00 457.63 0.01 -- 57.2 61.5
05/24/2019 02:00 457.63 0.00 -- 56.5 60.3
05/24/2019 01:00 457.62 0.05 -- 57.2 60.5
05/24/2019 00:00 457.63 0.18 0.06 57.7 59.8
05/23/2019 23:00 457.61 0.02 -- 58.2 58.3
05/23/2019 22:00 457.61 0.04 -- 58.5 58.0
05/23/2019 21:00 457.61 0.00 -- 61.5 57.8
05/23/2019 20:00 457.61 0.00 -- 63.0 58.3
05/23/2019 19:00 457.61 0.00 -- 66.3 58.8
05/23/2019 18:00 457.62 0.00 -- 69.8 58.8
05/23/2019 17:00 457.63 0.00 -- 69.9 59.8
05/23/2019 16:00 457.62 0.00 -- 69.6 59.8
05/23/2019 15:00 457.63 0.00 -- 69.4 60.5
05/23/2019 14:00 457.63 0.00 -- 67.7 61.0
05/23/2019 13:00 457.63 0.00 -- 65.5 61.8
05/23/2019 12:00 457.65 0.00 -- 63.7 61.5
05/23/2019 11:00 457.64 0.00 -- 60.8 61.5
05/23/2019 10:00 457.64 0.00 -- 59.3 61.5
05/23/2019 09:00 457.64 0.00 -- 56.6 62.3
05/23/2019 08:00 457.64 0.00 -- 50.1 62.5
05/23/2019 07:00 457.65 0.00 -- 49.7 63.0
05/23/2019 06:00 457.65 0.00 -- 49.3 63.8
05/23/2019 05:00 457.66 0.00 -- 50.0 63.5
05/23/2019 04:00 457.66 0.00 -- 50.1 64.5
05/23/2019 03:00 457.67 0.00 -- 49.9 65.5
05/23/2019 02:00 457.67 0.00 -- 49.6 66.0
05/23/2019 01:00 457.67 0.00 -- 49.0 66.5
05/23/2019 00:00 457.67 0.00 0.24 50.4 66.3
05/22/2019 23:00 457.67 0.00 -- 52.3 66.3
05/22/2019 22:00 457.68 0.00 -- 57.0 67.0
05/22/2019 21:00 457.69 0.00 -- 62.4 69.5
05/22/2019 20:00 457.68 0.00 -- 67.3 67.3
05/22/2019 19:00 457.69 0.00 -- 70.2 71.5
05/22/2019 18:00 457.70 0.00 -- 69.5 75.3
05/22/2019 17:00 457.70 0.00 -- 68.8 73.8
05/22/2019 16:00 457.70 0.00 -- 67.7 76.3
05/22/2019 15:00 457.70 0.00 -- 65.0 77.0
05/22/2019 14:00 457.71 0.00 -- 65.8 78.3
05/22/2019 13:00 457.71 0.00 -- 61.7 77.3
05/22/2019 12:00 457.72 0.00 -- 60.5 78.8
05/22/2019 11:00 457.72 0.00 -- 58.3 80.3
05/22/2019 10:00 457.72 0.00 -- 55.8 82.3
05/22/2019 09:00 457.76 0.00 -- 53.2 82.8
05/22/2019 08:00 457.76 0.00 -- 50.1 84.8
05/22/2019 07:00 457.74 0.00 -- 47.5 83.3
05/22/2019 06:00 457.76 0.00 -- 50.2 85.3
05/22/2019 05:00 457.74 0.00 -- 50.4 84.3
05/22/2019 04:00 457.75 0.00 -- 49.9 87.3
05/22/2019 03:00 457.79 0.00 -- 52.6 88.8
05/22/2019 02:00 457.78 0.00 -- 53.8 90.3
05/22/2019 01:00 457.78 0.00 -- 54.5 89.3
05/22/2019 00:00 457.79 0.00 0.00 55.0 91.3
05/21/2019 23:00 457.81 0.00 -- 54.8 92.5
05/21/2019 22:00 457.80 0.00 -- 55.4 94.5
05/21/2019 21:00 457.81 0.00 -- 55.4 93.5
05/21/2019 20:00 457.82 0.00 -- 55.5 95.0
05/21/2019 19:00 457.83 0.00 -- 55.3 96.0
05/21/2019 18:00 457.83 0.00 -- 56.3 93.3
05/21/2019 17:00 457.80 0.00 -- 54.8 92.5
05/21/2019 16:00 457.80 0.00 -- 54.6 92.0
05/21/2019 15:00 457.81 0.00 -- 58.4 93.3
05/21/2019 14:00 457.81 0.00 -- 55.7 95.0
05/21/2019 13:00 457.83 0.00 -- 57.1 94.8
05/21/2019 12:00 457.81 0.00 -- 55.5 96.8
05/21/2019 11:00 457.82 0.00 -- 56.7 96.0
05/21/2019 10:00 457.83 0.01 -- 55.2 100.0
05/21/2019 09:00 457.85 0.00 -- 52.7 99.5
05/21/2019 08:00 457.83 0.00 -- 53.6 99.0
05/21/2019 07:00 457.86 0.00 -- 53.4 100.3
05/21/2019 06:00 457.86 0.00 -- 54.6 101.0
05/21/2019 05:00 457.86 0.00 -- 58.6 102.0
05/21/2019 04:00 457.86 0.00 -- 60.4 102.3
05/21/2019 03:00 457.86 0.00 -- 61.2 101.0
05/21/2019 02:00 457.84 0.00 -- 62.5 97.5
05/21/2019 01:00 457.82 0.00 -- 64.4 96.0
05/21/2019 00:00 457.83 0.00 0.01 61.8 95.0
05/20/2019 23:00 457.82 0.00 -- 63.5 95.8
05/20/2019 22:00 457.81 0.01 -- 66.5 94.8
05/20/2019 21:00 457.81 0.00 -- 68.4 93.8
05/20/2019 20:00 457.80 0.00 -- 69.1 92.8
05/20/2019 19:00 457.81 0.00 -- 68.9 91.8
05/20/2019 18:00 457.80 0.03 -- 67.1 90.8
05/20/2019 17:00 457.79 0.00 -- 78.3 88.8
05/20/2019 16:00 457.78 0.00 -- 79.0 88.3
05/20/2019 15:00 457.78 0.00 -- 77.1 88.8
05/20/2019 14:00 457.78 0.01 -- 75.3 86.5
05/20/2019 13:00 457.76 0.00 -- 72.5 84.0
05/20/2019 12:00 457.76 0.00 -- 71.3 85.0
05/20/2019 11:00 457.73 0.00 -- 59.6 81.0
05/20/2019 10:00 457.73 0.01 -- 56.3 82.3
05/20/2019 09:00 457.72 0.10 -- 55.6 80.5
05/20/2019 08:00 457.71 0.05 -- 54.4 77.5
05/20/2019 07:00 457.70 0.00 -- 54.4 76.3
05/20/2019 06:00 457.69 0.02 -- 55.0 75.5
05/20/2019 05:00 457.69 0.00 -- 55.5 71.8
05/20/2019 04:00 457.68 0.00 -- 55.6 67.3
05/20/2019 03:00 457.68 0.01 -- 55.9 66.5
05/20/2019 02:00 457.67 0.00 -- 56.2 66.3
05/20/2019 01:00 457.67 0.04 -- 56.8 65.8
05/20/2019 00:00 457.66 0.15 0.28 57.7 65.0
05/19/2019 23:00 457.66 0.11 -- 58.3 63.5
05/19/2019 22:00 457.65 0.14 -- 59.9 62.5
05/19/2019 21:00 457.65 0.00 -- 67.0 62.3
05/19/2019 20:00 457.64 0.00 -- 71.2 62.0
05/19/2019 19:00 457.64 0.00 -- 73.4 62.3
05/19/2019 18:00 457.64 0.00 -- 74.5 62.3
05/19/2019 17:00 457.65 0.00 -- 73.3 64.3
05/19/2019 16:00 457.66 0.00 -- 68.2 63.5
05/19/2019 15:00 457.65 0.00 -- 65.9 63.8
05/19/2019 14:00 457.67 0.00 -- 62.4 64.8
05/19/2019 13:00 457.66 0.00 -- 62.6 63.8
05/19/2019 12:00 457.67 0.00 -- 59.5 64.3
05/19/2019 11:00 457.66 0.00 -- 60.6 64.0
05/19/2019 10:00 457.65 0.00 -- 55.9 64.0
05/19/2019 09:00 457.66 0.00 -- 53.4 64.8
05/19/2019 08:00 457.66 0.00 -- 50.9 64.0
05/19/2019 07:00 457.66 0.00 -- 50.1 64.8
05/19/2019 06:00 457.68 0.00 -- 50.0 66.0
05/19/2019 05:00 457.66 0.00 -- 50.2 68.8
05/19/2019 04:00 457.66 0.00 -- 50.5 66.0
05/19/2019 03:00 457.67 0.00 -- 50.0 65.8
05/19/2019 02:00 457.68 0.00 -- 50.4 66.3
05/19/2019 01:00 457.68 0.00 -- 50.5 66.3
05/19/2019 00:00 457.67 0.00 0.40 52.5 66.3
05/18/2019 23:00 457.67 0.00 -- 55.7 66.3
05/18/2019 22:00 457.67 0.00 -- 57.9 66.3
05/18/2019 21:00 457.68 0.00 -- 59.1 67.0
05/18/2019 20:00 457.67 0.00 -- 59.9 66.3
05/18/2019 19:00 457.68 0.00 -- 61.2 66.8
05/18/2019 18:00 457.67 0.00 -- 64.3 66.0
05/18/2019 17:00 457.67 0.00 -- 63.4 65.5
05/18/2019 16:00 457.67 0.00 -- 63.3 65.5
05/18/2019 15:00 457.67 0.00 -- 62.8 65.5
05/18/2019 14:00 457.66 0.00 -- 61.1 64.8
05/18/2019 13:00 457.67 0.00 -- 60.6 64.0
05/18/2019 12:00 457.68 0.00 -- 58.1 66.0
05/18/2019 11:00 457.66 0.00 -- 56.0 63.8
05/18/2019 10:00 457.64 0.00 -- 56.1 65.0
05/18/2019 09:00 457.68 0.00 -- 53.6 66.3
05/18/2019 08:00 457.66 0.00 -- 50.7 65.8
05/18/2019 07:00 457.67 0.00 -- 48.3 65.3
05/18/2019 06:00 457.64 0.00 -- 45.9 63.0
05/18/2019 05:00 457.67 0.00 -- 43.7 64.0
05/18/2019 04:00 457.65 0.01 -- 43.5 63.3
05/18/2019 03:00 457.66 0.00 -- 45.5 63.3
05/18/2019 02:00 457.63 0.00 -- 47.6 61.5
05/18/2019 01:00 457.63 0.00 -- 48.6 62.3
05/18/2019 00:00 457.65 0.00 0.01 50.6 62.8
05/17/2019 23:00 457.63 0.00 -- 52.3 61.0
05/17/2019 22:00 457.63 0.13 -- 52.9 60.8
05/17/2019 21:00 457.62 0.00 -- 54.7 59.5
05/17/2019 20:00 457.62 0.00 -- 56.2 60.0
05/17/2019 19:00 457.62 0.00 -- 56.1 60.0
05/17/2019 18:00 457.62 0.00 -- 56.6 60.3
05/17/2019 17:00 457.62 0.00 -- 54.2 60.3
05/17/2019 16:00 457.63 0.00 -- 54.0 60.5
05/17/2019 15:00 457.63 0.00 -- 53.7 60.8
05/17/2019 14:00 457.62 0.00 -- 51.6 60.8
05/17/2019 13:00 457.63 0.00 -- 48.2 61.0
05/17/2019 12:00 457.64 0.00 -- 46.7 61.3
05/17/2019 11:00 457.63 0.01 -- 46.0 61.3
05/17/2019 10:00 457.63 0.02 -- 45.8 61.5
05/17/2019 09:00 457.64 0.05 -- 46.2 62.3
05/17/2019 08:00 457.64 0.00 -- 44.8 61.5
05/17/2019 07:00 457.63 0.00 -- 42.6 62.5
05/17/2019 06:00 457.64 0.00 -- 42.1 62.5
05/17/2019 05:00 457.64 0.00 -- 41.8 62.8
05/17/2019 04:00 457.65 0.00 -- 43.8 63.5
05/17/2019 03:00 457.64 0.00 -- 45.3 62.8
05/17/2019 02:00 457.65 0.00 -- 45.1 62.8
05/17/2019 01:00 457.68 0.00 -- 47.3 65.3
05/17/2019 00:00 457.68 0.00 0.21 47.8 65.0
05/16/2019 23:00 457.65 0.00 -- 50.1 64.0
05/16/2019 22:00 457.66 0.00 -- 54.4 64.8
05/16/2019 21:00 457.67 0.00 -- 57.2 65.0
05/16/2019 20:00 457.67 0.00 -- 58.9 65.8
05/16/2019 19:00 457.67 0.00 -- 59.5 66.3
05/16/2019 18:00 457.67 0.00 -- 61.2 66.3
05/16/2019 17:00 457.69 0.00 -- 59.9 67.3
05/16/2019 16:00 457.67 0.00 -- 63.4 67.0
05/16/2019 15:00 457.69 0.00 -- 58.7 67.8
05/16/2019 14:00 457.69 0.00 -- 60.5 69.8
05/16/2019 13:00 457.69 0.00 -- 62.0 72.0
05/16/2019 12:00 457.69 0.00 -- 61.0 73.8
05/16/2019 11:00 457.71 0.00 -- 60.4 76.8
05/16/2019 10:00 457.73 0.00 -- 58.9 79.3
05/16/2019 09:00 457.73 0.00 -- 52.1 80.8
05/16/2019 08:00 457.74 0.00 -- 43.8 81.5
05/16/2019 07:00 457.74 0.00 -- 43.9 82.8
05/16/2019 06:00 457.74 0.00 -- 44.1 83.5
05/16/2019 05:00 457.75 0.00 -- 44.6 83.8
05/16/2019 04:00 457.75 0.00 -- 45.1 85.0
05/16/2019 03:00 457.77 0.00 -- 46.0 85.8
05/16/2019 02:00 457.77 0.00 -- 45.9 85.5
05/16/2019 01:00 457.75 0.00 -- 46.6 85.5
05/16/2019 00:00 457.76 0.00 0.00 45.9 87.0
05/15/2019 23:00 457.75 0.00 -- 47.7 85.3
05/15/2019 22:00 457.76 0.00 -- 51.1 85.5
05/15/2019 21:00 457.75 0.00 -- 52.8 84.5
05/15/2019 20:00 457.76 0.00 -- 53.9 86.0
05/15/2019 19:00 457.77 0.00 -- 54.7 86.3
05/15/2019 18:00 457.78 0.00 -- 54.3 87.5
05/15/2019 17:00 457.79 0.00 -- 54.5 89.0
05/15/2019 16:00 457.77 0.00 -- 54.2 87.8
05/15/2019 15:00 457.79 0.00 -- 53.7 89.3
05/15/2019 14:00 457.79 0.00 -- 52.6 91.0
05/15/2019 13:00 457.78 0.00 -- 52.5 90.8
05/15/2019 12:00 457.81 0.00 -- 50.4 93.3
05/15/2019 11:00 457.81 0.00 -- 49.1 93.5
05/15/2019 10:00 457.81 0.00 -- 47.8 93.5
05/15/2019 09:00 457.82 0.00 -- 43.9 94.3
05/15/2019 08:00 457.82 0.00 -- 41.8 94.8
05/15/2019 07:00 457.81 0.00 -- 40.6 94.5
05/15/2019 06:00 457.82 0.00 -- 40.9 93.3
05/15/2019 05:00 457.82 0.00 -- 41.5 94.0
05/15/2019 04:00 457.82 0.00 -- 41.0 93.8
05/15/2019 03:00 457.82 0.00 -- 40.9 94.0
05/15/2019 02:00 457.80 0.00 -- 41.0 93.0
05/15/2019 01:00 457.81 0.00 -- 41.8 93.5
05/15/2019 00:00 457.81 0.01 0.00 42.2 93.5
05/14/2019 23:00 457.81 0.00 -- 42.0 93.3
05/14/2019 22:00 457.79 0.00 -- 42.7 92.0
05/14/2019 21:00 457.79 0.00 -- 43.6 90.3
05/14/2019 20:00 457.79 0.00 -- 43.9 91.3
05/14/2019 19:00 457.81 0.00 -- 44.7 90.8
05/14/2019 18:00 457.78 0.00 -- 44.6 88.5
05/14/2019 17:00 457.77 0.00 -- 45.7 87.0
05/14/2019 16:00 457.74 0.00 -- 45.3 86.0
05/14/2019 15:00 457.76 0.00 -- 44.2 85.3
05/14/2019 14:00 457.73 0.00 -- 44.2 83.0
05/14/2019 13:00 457.75 0.01 -- 44.2 84.8
05/14/2019 12:00 457.76 0.00 -- 41.6 82.8
05/14/2019 11:00 457.75 0.01 -- 40.2 83.5
05/14/2019 10:00 457.72 0.01 -- 39.8 82.3
05/14/2019 09:00 457.74 0.01 -- 39.4 82.3
05/14/2019 08:00 457.74 0.02 -- 39.3 82.0
05/14/2019 07:00 457.70 0.04 -- 37.8 78.8
05/14/2019 06:00 457.70 0.06 -- 38.1 77.5
05/14/2019 05:00 457.73 0.05 -- 38.9 76.8
05/14/2019 04:00 457.72 0.02 -- 39.5 79.3
05/14/2019 03:00 457.69 0.09 -- 40.5 77.8
05/14/2019 02:00 457.68 0.03 -- 40.1 75.5
05/14/2019 01:00 457.70 0.11 -- 40.8 74.0
05/14/2019 00:00 457.68 0.02 0.47 43.1 69.5
05/13/2019 23:00 457.69 0.00 -- 44.8 74.0
05/13/2019 22:00 457.72 0.00 -- 45.5 78.0
05/13/2019 21:00 457.70 0.00 -- 47.3 78.0
05/13/2019 20:00 457.71 0.00 -- 48.4 77.3
05/13/2019 19:00 457.71 0.00 -- 50.9 76.8
05/13/2019 18:00 457.69 0.00 -- 53.5 74.3
05/13/2019 17:00 457.71 0.00 -- 56.3 74.0
05/13/2019 16:00 457.71 0.00 -- 57.9 74.3
05/13/2019 15:00 457.71 0.00 -- 58.8 74.5
05/13/2019 14:00 457.70 0.00 -- 58.1 74.5
05/13/2019 13:00 457.70 0.00 -- 58.0 76.0
05/13/2019 12:00 457.70 0.00 -- 56.0 76.8
05/13/2019 11:00 457.70 0.00 -- 56.3 77.5
05/13/2019 10:00 457.70 0.00 -- 52.0 76.8
05/13/2019 09:00 457.70 0.00 -- 50.7 79.5
05/13/2019 08:00 457.74 0.00 -- 44.7 82.8
05/13/2019 07:00 457.75 0.00 -- 44.5 83.8
05/13/2019 06:00 457.75 0.00 -- 45.1 84.0
05/13/2019 05:00 457.75 0.00 -- 45.3 84.0
05/13/2019 04:00 457.75 0.00 -- 45.9 83.3
05/13/2019 03:00 457.76 0.00 -- 45.7 85.0
05/13/2019 02:00 457.75 0.00 -- 46.5 82.0
05/13/2019 01:00 457.77 0.00 -- 48.0 82.0
05/13/2019 00:00 457.74 0.00 0.02 48.7 82.5
05/12/2019 23:00 457.74 0.00 -- 50.6 82.3
05/12/2019 22:00 457.74 0.00 -- 52.3 83.0
05/12/2019 21:00 457.75 0.00 -- 53.4 83.3
05/12/2019 20:00 457.76 0.00 -- 55.2 84.5
05/12/2019 19:00 457.77 0.00 -- 55.9 86.0
05/12/2019 18:00 457.76 0.00 -- 57.8 85.8
05/12/2019 17:00 457.78 0.00 -- 60.1 86.5
05/12/2019 16:00 457.77 0.00 -- 58.7 87.0
05/12/2019 15:00 457.79 0.00 -- 58.9 88.8
05/12/2019 14:00 457.79 0.00 -- 57.1 91.0
05/12/2019 13:00 457.80 0.00 -- 57.6 91.0
05/12/2019 12:00 457.82 0.00 -- 55.6 94.0
05/12/2019 11:00 457.82 0.00 -- 54.3 94.8
05/12/2019 10:00 457.83 0.00 -- 49.6 95.0
05/12/2019 09:00 457.83 0.00 -- 45.9 95.5
05/12/2019 08:00 457.83 0.00 -- 42.3 95.3
05/12/2019 07:00 457.84 0.00 -- 41.7 96.0
05/12/2019 06:00 457.83 0.00 -- 41.7 97.5
05/12/2019 05:00 457.84 0.00 -- 42.0 96.0
05/12/2019 04:00 457.83 0.00 -- 42.8 97.3
05/12/2019 03:00 457.84 0.00 -- 43.0 97.5
05/12/2019 02:00 457.85 0.00 -- 44.0 99.3
05/12/2019 01:00 457.86 0.00 -- 44.1 99.3
05/12/2019 00:00 457.85 0.00 0.00 45.4 100.3
05/11/2019 23:00 457.87 0.00 -- 48.7 100.3
05/11/2019 22:00 457.86 0.00 -- 50.7 100.0
05/11/2019 21:00 457.84 0.00 -- 51.7 97.8
05/11/2019 20:00 457.84 0.00 -- 54.1 97.8
05/11/2019 19:00 457.84 0.00 -- 56.8 97.0
05/11/2019 18:00 457.82 0.00 -- 58.5 98.3
05/11/2019 17:00 457.84 0.00 -- 57.2 97.0
05/11/2019 16:00 457.84 0.00 -- 57.7 98.0
05/11/2019 15:00 457.85 0.00 -- 57.7 97.5
05/11/2019 14:00 457.84 0.00 -- 54.6 97.5
05/11/2019 13:00 457.83 0.00 -- 54.3 98.8
05/11/2019 12:00 457.83 0.00 -- 54.1 99.8
05/11/2019 11:00 457.85 0.00 -- 54.8 99.8
05/11/2019 10:00 457.89 0.00 -- 54.0 103.0
05/11/2019 09:00 457.86 0.00 -- 53.3 101.8
05/11/2019 08:00 457.84 0.00 -- 51.7 99.5
05/11/2019 07:00 457.86 0.00 -- 50.8 101.5
05/11/2019 06:00 457.86 0.00 -- 45.6 99.5
05/11/2019 05:00 457.83 0.00 -- 45.4 97.3
05/11/2019 04:00 457.82 0.00 -- 46.0 96.5
05/11/2019 03:00 457.83 0.00 -- 46.6 94.8
05/11/2019 02:00 457.81 0.00 -- 46.7 93.8
05/11/2019 01:00 457.81 0.00 -- 46.2 92.5
05/11/2019 00:00 457.81 0.00 0.00 46.7 91.8
05/10/2019 23:00 457.79 0.00 -- 46.9 89.5
05/10/2019 22:00 457.78 0.00 -- 47.3 88.0
05/10/2019 21:00 457.77 0.00 -- 46.8 85.5
05/10/2019 20:00 457.75 0.00 -- 46.8 83.5
05/10/2019 19:00 457.75 0.00 -- 47.2 81.8
05/10/2019 18:00 457.70 0.00 -- 46.9 78.5
05/10/2019 17:00 457.71 0.01 -- 46.0 78.0
05/10/2019 16:00 457.71 0.12 -- 45.9 74.0
05/10/2019 15:00 457.68 0.08 -- 45.0 67.3
05/10/2019 14:00 457.66 0.07 -- 44.5 64.8
05/10/2019 13:00 457.64 0.10 -- 43.6 63.0
05/10/2019 12:00 457.63 0.03 -- 42.4 59.5
05/10/2019 11:00 457.63 0.02 -- 43.2 59.3
05/10/2019 10:00 457.61 0.03 -- 42.8 57.5
05/10/2019 09:00 457.60 0.02 -- 41.8 56.8
05/10/2019 08:00 457.60 0.03 -- 42.3 56.0
05/10/2019 07:00 457.59 0.04 -- 41.8 55.0
05/10/2019 06:00 457.59 0.02 -- 42.0 54.0
05/10/2019 05:00 457.57 0.03 -- 42.2 52.8
05/10/2019 04:00 457.57 0.04 -- 43.2 51.8
05/10/2019 03:00 457.56 0.02 -- 43.1 50.5
05/10/2019 02:00 457.55 0.01 -- 45.5 49.8
05/10/2019 01:00 457.53 0.00 -- 48.6 47.8
05/10/2019 00:00 457.53 0.00 0.67 48.3 46.8
05/09/2019 23:00 457.53 0.01 -- 49.5 46.8
05/09/2019 22:00 457.50 0.00 -- 54.9 44.8
05/09/2019 21:00 457.49 0.00 -- 56.4 43.5
05/09/2019 20:00 457.48 0.00 -- 58.6 40.8
05/09/2019 19:00 457.46 0.00 -- 62.6 39.3
05/09/2019 18:00 457.45 0.00 -- 66.3 38.0
05/09/2019 17:00 457.43 0.00 -- 68.0 35.0
05/09/2019 16:00 457.41 0.00 -- 67.9 32.5
05/09/2019 15:00 457.38 0.00 -- 66.4 30.3
05/09/2019 14:00 457.36 0.00 -- 61.0 27.8
05/09/2019 13:00 457.33 0.00 -- 60.8 25.3
05/09/2019 12:00 457.30 0.00 -- 57.8 22.8
05/09/2019 11:00 457.28 0.00 -- 51.9 19.5
05/09/2019 10:00 457.23 0.00 -- 50.0 16.0
05/09/2019 09:00 457.20 0.00 -- 41.3 13.0
05/09/2019 08:00 457.16 0.00 -- 34.1 10.0
05/09/2019 07:00 457.12 0.00 -- 31.3 7.0
05/09/2019 06:00 457.07 0.00 -- 31.8 4.3
05/09/2019 05:00 457.02 0.00 -- 33.6 2.0
05/09/2019 04:00 456.97 0.00 -- 35.1 0.3
05/09/2019 03:00 456.92 0.00 -- 37.3 0.0
05/09/2019 02:00 456.86 0.00 -- 38.2 0.0
05/09/2019 01:00 456.81 0.00 -- 39.6 0.0
05/09/2019 00:00 456.75 0.00 0.01 42.8 0.0
05/08/2019 23:00 456.69 0.00 -- 48.6 0.0
05/08/2019 22:00 456.63 0.00 -- 49.1 0.0
05/08/2019 21:00 456.57 0.00 -- 51.5 0.0
05/08/2019 20:00 456.51 0.00 -- 55.0 0.0
05/08/2019 19:00 456.45 0.00 -- 57.3 0.0
05/08/2019 18:00 456.37 0.00 -- 60.0 0.0
05/08/2019 17:00 456.30 0.00 -- 58.7 0.0
05/08/2019 16:00 456.23 0.00 -- 58.2 0.0
05/08/2019 15:00 456.13 0.00 -- 57.5 0.0
05/08/2019 14:00 456.10 0.00 -- 57.1 0.0
05/08/2019 13:00 456.03 0.00 -- 56.8 0.0
05/08/2019 12:00 455.95 0.00 -- 54.1 0.0
05/08/2019 11:00 455.84 0.00 -- 53.1 70.3
05/08/2019 10:00 455.64 0.00 -- 50.7 118.8
05/08/2019 09:00 455.60 0.00 -- 49.1 117.5
05/08/2019 08:00 455.61 0.00 -- 40.2 118.5
05/08/2019 07:00 455.64 0.00 -- 38.1 122.0
05/08/2019 06:00 455.66 0.00 -- 38.5 121.8
05/08/2019 05:00 455.63 0.00 -- 39.0 120.5
05/08/2019 04:00 455.65 0.00 -- 39.3 123.0
05/08/2019 03:00 455.63 0.00 -- 41.6 121.0
05/08/2019 02:00 455.65 0.00 -- 43.0 120.5
05/08/2019 01:00 455.64 0.00 -- 45.1 121.0
05/08/2019 00:00 455.64 0.00 0.00 47.0 120.5
05/07/2019 23:00 455.68 0.00 -- 50.0 123.3
05/07/2019 22:00 455.64 0.00 -- 54.0 121.5
05/07/2019 21:00 455.65 0.00 -- 56.9 121.5
05/07/2019 20:00 455.65 0.00 -- 57.0 123.0
05/07/2019 19:00 455.66 0.00 -- 58.5 124.3
05/07/2019 18:00 455.66 0.01 -- 58.8 125.0
05/07/2019 17:00 455.65 0.00 -- 58.7 124.3
05/07/2019 16:00 455.67 0.00 -- 60.6 126.3
05/07/2019 15:00 455.66 0.00 -- 59.1 124.0
05/07/2019 14:00 455.67 0.00 -- 60.3 126.0
05/07/2019 13:00 455.65 0.00 -- 62.9 124.8
05/07/2019 12:00 455.67 0.00 -- 58.9 126.0
05/07/2019 11:00 455.66 0.00 -- 56.8 127.5
05/07/2019 10:00 455.69 0.00 -- 50.6 126.0
05/07/2019 09:00 455.66 0.00 -- 47.6 127.3
05/07/2019 08:00 455.70 0.00 -- 46.1 131.0
05/07/2019 07:00 455.72 0.00 -- 45.1 132.0
05/07/2019 06:00 455.71 0.00 -- 47.9 131.8
05/07/2019 05:00 455.70 0.00 -- 49.5 131.0
05/07/2019 04:00 455.68 0.00 -- 49.8 131.3
05/07/2019 03:00 455.71 0.00 -- 51.4 134.0
05/07/2019 02:00 455.72 0.00 -- 50.4 135.3
05/07/2019 01:00 455.73 0.00 -- 50.6 137.0
05/07/2019 00:00 455.75 0.00 0.01 53.0 136.5
05/06/2019 23:00 455.77 0.00 -- 55.8 138.5
05/06/2019 22:00 455.72 0.00 -- 58.4 134.0
05/06/2019 21:00 455.72 0.00 -- 61.3 135.0
05/06/2019 20:00 455.73 0.00 -- 65.3 137.3
05/06/2019 19:00 455.75 0.00 -- 69.6 138.0
05/06/2019 18:00 455.76 0.00 -- 72.2 138.5
05/06/2019 17:00 455.73 0.00 -- 70.8 139.0
05/06/2019 16:00 455.76 0.00 -- 70.9 139.8
05/06/2019 15:00 455.73 0.00 -- 69.0 137.5
05/06/2019 14:00 455.75 0.00 -- 65.3 140.0
05/06/2019 13:00 455.76 0.00 -- 65.0 140.0
05/06/2019 12:00 455.77 0.00 -- 61.2 141.8
05/06/2019 11:00 455.78 0.00 -- 59.6 143.3
05/06/2019 10:00 455.78 0.00 -- 55.8 145.5
05/06/2019 09:00 455.77 0.00 -- 51.3 141.3
05/06/2019 08:00 455.77 0.00 -- 43.5 147.3
05/06/2019 07:00 455.78 0.00 -- 41.8 147.3
05/06/2019 06:00 455.80 0.00 -- 45.6 147.3
05/06/2019 05:00 455.77 0.00 -- 45.3 145.3
05/06/2019 04:00 455.81 0.00 -- 46.3 151.3
05/06/2019 03:00 455.80 0.00 -- 47.5 148.3
05/06/2019 02:00 455.81 0.00 -- 49.7 149.8
05/06/2019 01:00 455.81 0.00 -- 50.4 148.8
05/06/2019 00:00 455.80 0.00 0.00 52.3 150.0
05/05/2019 23:00 455.79 0.00 -- 54.4 152.3
05/05/2019 22:00 455.82 0.00 -- 57.7 155.5
05/05/2019 21:00 455.84 0.00 -- 59.6 155.8
05/05/2019 20:00 455.82 0.00 -- 62.8 154.3
05/05/2019 19:00 455.76 0.00 -- 65.2 151.0
05/05/2019 18:00 455.83 0.00 -- 67.3 154.0
05/05/2019 17:00 455.82 0.00 -- 66.0 154.0
05/05/2019 16:00 455.83 0.00 -- 68.4 154.5
05/05/2019 15:00 455.80 0.00 -- 64.1 154.0
05/05/2019 14:00 455.81 0.00 -- 62.9 154.8
05/05/2019 13:00 455.84 0.00 -- 62.6 158.0
05/05/2019 12:00 455.84 0.00 -- 61.9 156.8
05/05/2019 11:00 455.83 0.00 -- 59.0 154.5
05/05/2019 10:00 455.85 0.00 -- 57.2 160.3
05/05/2019 09:00 455.86 0.00 -- 52.5 158.5
05/05/2019 08:00 455.85 0.00 -- 51.3 158.3
05/05/2019 07:00 455.86 0.00 -- 51.3 162.0
05/05/2019 06:00 455.89 0.00 -- 51.3 160.8
05/05/2019 05:00 455.89 0.00 -- 51.7 161.8
05/05/2019 04:00 455.89 0.00 -- 52.1 165.8
05/05/2019 03:00 455.86 0.00 -- 52.6 165.3
05/05/2019 02:00 455.90 0.00 -- 53.1 161.5
05/05/2019 01:00 455.86 0.00 -- 53.4 163.0
05/05/2019 00:00 455.88 0.00 0.00 53.7 163.8
05/04/2019 23:00 455.89 0.00 -- 55.6 167.3
05/04/2019 22:00 455.89 0.00 -- 59.5 163.0
05/04/2019 21:00 455.91 0.00 -- 60.6 165.5
05/04/2019 20:00 455.90 0.00 -- 63.2 167.5
05/04/2019 19:00 455.87 0.00 -- 66.4 166.0
05/04/2019 18:00 455.90 0.00 -- 68.1 167.8
05/04/2019 17:00 455.92 0.00 -- 67.6 166.8
05/04/2019 16:00 455.86 0.00 -- 64.6 168.0
05/04/2019 15:00 455.90 0.00 -- 64.9 166.5
05/04/2019 14:00 455.86 0.00 -- 63.0 165.3
05/04/2019 13:00 455.90 0.00 -- 61.0 165.5
05/04/2019 12:00 455.91 0.00 -- 57.8 167.0
05/04/2019 11:00 455.88 0.00 -- 53.5 167.5
05/04/2019 10:00 455.87 0.00 -- 47.4 166.0
05/04/2019 09:00 455.90 0.00 -- 45.3 167.0
05/04/2019 08:00 455.88 0.00 -- 44.4 166.8
05/04/2019 07:00 455.86 0.01 -- 43.9 165.3
05/04/2019 06:00 455.91 0.00 -- 43.9 164.8
05/04/2019 05:00 455.85 0.00 -- 44.0 169.0
05/04/2019 04:00 455.92 0.00 -- 44.0 166.3
05/04/2019 03:00 455.89 0.00 -- 44.2 168.5
05/04/2019 02:00 455.92 0.00 -- 44.2 170.3
05/04/2019 01:00 455.88 0.00 -- 44.8 169.0
05/04/2019 00:00 455.89 0.00 0.01 45.3 164.5
05/03/2019 23:00 455.88 0.00 -- 45.5 162.8
05/03/2019 22:00 455.88 0.00 -- 45.7 165.3
05/03/2019 21:00 455.88 0.00 -- 46.1 162.8
05/03/2019 20:00 455.87 0.03 -- 46.3 163.3
05/03/2019 19:00 455.88 0.01 -- 46.4 163.3
05/03/2019 18:00 455.86 0.01 -- 46.6 160.3
05/03/2019 17:00 455.85 0.02 -- 46.6 162.8
05/03/2019 16:00 455.88 0.16 -- 46.6 164.0
05/03/2019 15:00 455.87 0.13 -- 46.9 161.8
05/03/2019 14:00 455.87 0.00 -- 46.6 161.0
05/03/2019 13:00 455.83 0.00 -- 46.4 160.8
05/03/2019 12:00 455.86 0.00 -- 46.1 161.0
05/03/2019 11:00 455.87 0.00 -- 45.1 160.8
05/03/2019 10:00 455.88 0.00 -- 45.0 165.5
05/03/2019 09:00 455.87 0.00 -- 43.7 162.5
05/03/2019 08:00 455.91 0.00 -- 43.0 163.5
05/03/2019 07:00 455.88 0.01 -- 42.2 162.5
05/03/2019 06:00 455.87 0.00 -- 42.2 165.8
05/03/2019 05:00 455.84 0.00 -- 42.2 163.3
05/03/2019 04:00 455.88 0.00 -- 42.0 165.0
05/03/2019 03:00 455.88 0.00 -- 42.4 163.5
05/03/2019 02:00 455.87 0.00 -- 42.4 164.0
05/03/2019 01:00 455.86 0.00 -- 42.5 161.8
05/03/2019 00:00 455.88 0.00 0.37 42.8 165.0
05/02/2019 23:00 455.86 0.00 -- 43.2 163.5
05/02/2019 22:00 455.89 0.00 -- 43.0 166.5
05/02/2019 21:00 455.88 0.00 -- 43.4 166.0
05/02/2019 20:00 455.87 0.00 -- 43.9 165.0
05/02/2019 19:00 455.90 0.00 -- 44.3 167.5
05/02/2019 18:00 455.87 0.00 -- 44.7 168.5
05/02/2019 17:00 455.93 0.02 -- 43.8 169.8
05/02/2019 16:00 455.92 0.00 -- 45.2 164.8
05/02/2019 15:00 455.87 0.01 -- 44.3 165.3
05/02/2019 14:00 455.89 0.01 -- 43.6 166.3
05/02/2019 13:00 455.88 0.00 -- 43.5 167.0
05/02/2019 12:00 455.91 0.00 -- 42.8 167.0
05/02/2019 11:00 455.92 0.00 -- 42.3 167.0
05/02/2019 10:00 455.90 0.02 -- 41.7 164.5
05/02/2019 09:00 455.88 0.00 -- 41.8 165.0
05/02/2019 08:00 455.87 0.00 -- 41.9 162.0
05/02/2019 07:00 455.85 0.02 -- 41.4 161.5
05/02/2019 06:00 455.90 0.01 -- 41.7 169.5
05/02/2019 05:00 455.89 0.02 -- 41.7 164.8
05/02/2019 04:00 455.89 0.07 -- 41.8 163.8
05/02/2019 03:00 455.93 0.06 -- 42.3 164.0
05/02/2019 02:00 455.89 0.18 -- 42.9 161.3
05/02/2019 01:00 455.86 0.00 -- 45.7 158.8
05/02/2019 00:00 455.88 0.00 0.42 46.8 160.3
05/01/2019 23:00 455.89 0.00 -- 47.7 162.3
05/01/2019 22:00 455.88 0.00 -- 48.5 163.3
05/01/2019 21:00 455.89 0.00 -- 49.3 164.5
05/01/2019 20:00 455.89 0.00 -- 50.0 163.0
05/01/2019 19:00 455.88 0.00 -- 51.1 163.8
05/01/2019 18:00 455.90 0.00 -- 52.5 164.0
05/01/2019 17:00 455.89 0.00 -- 53.8 167.3
05/01/2019 16:00 455.90 0.00 -- 56.7 167.8
05/01/2019 15:00 455.90 0.00 -- 57.2 166.3
05/01/2019 14:00 455.91 0.00 -- 55.6 168.0
05/01/2019 13:00 455.87 0.00 -- 54.7 166.5
05/01/2019 12:00 455.87 0.00 -- 54.2 170.0
05/01/2019 11:00 455.91 0.00 -- 49.9 168.5
05/01/2019 10:00 455.94 0.00 -- 47.5 171.8
05/01/2019 09:00 455.91 0.00 -- 41.8 169.8
05/01/2019 08:00 455.93 0.00 -- 38.9 175.8
05/01/2019 07:00 455.97 0.00 -- 37.9 175.3
05/01/2019 06:00 455.94 0.00 -- 37.6 175.3
05/01/2019 05:00 455.96 0.00 -- 38.1 176.8
05/01/2019 04:00 455.98 0.00 -- 38.7 178.8
05/01/2019 03:00 455.99 0.00 -- 38.3 183.8
05/01/2019 02:00 455.96 0.00 -- 36.4 181.5
05/01/2019 01:00 455.99 0.00 -- 36.2 179.8
05/01/2019 00:00 455.95 0.00 0.00 37.6 182.3
04/30/2019 23:00 456.00 0.00 -- 39.6 183.3
04/30/2019 22:00 455.97 0.00 -- 43.6 179.8
04/30/2019 21:00 456.02 0.00 -- 47.5 180.5
04/30/2019 20:00 455.96 0.00 -- 51.0 180.3
04/30/2019 19:00 455.95 0.00 -- 52.5 178.0
04/30/2019 18:00 456.01 0.00 -- 51.5 187.8
04/30/2019 17:00 456.02 0.00 -- 51.3 184.5
04/30/2019 16:00 456.02 0.00 -- 47.1 186.8
04/30/2019 15:00 455.99 0.00 -- 46.9 187.3
04/30/2019 14:00 455.99 0.00 -- 46.5 189.3
04/30/2019 13:00 455.99 0.00 -- 45.6 190.5
04/30/2019 12:00 455.98 0.00 -- 45.2 188.0
04/30/2019 11:00 456.00 0.00 -- 43.6 191.0
04/30/2019 10:00 456.08 0.00 -- 43.3 195.8
04/30/2019 09:00 456.04 0.00 -- 41.5 196.5
04/30/2019 08:00 456.03 0.00 -- 41.1 199.0
04/30/2019 07:00 456.06 0.00 -- 41.1 203.8
04/30/2019 06:00 456.11 0.00 -- 41.7 206.3
04/30/2019 05:00 456.06 0.00 -- 43.1 204.5
04/30/2019 04:00 456.06 0.00 -- 43.2 200.5
04/30/2019 03:00 456.09 0.00 -- 43.9 204.8
04/30/2019 02:00 456.11 0.00 -- 43.9 206.8
04/30/2019 01:00 456.17 0.00 -- 42.6 215.5
04/30/2019 00:00 456.12 0.00 0.00 44.2 211.0
04/29/2019 23:00 456.12 0.00 -- 45.6 209.3
04/29/2019 22:00 456.13 0.00 -- 46.6 208.8
04/29/2019 21:00 456.08 0.00 -- 48.0 202.5
04/29/2019 20:00 456.11 0.00 -- 49.7 213.5
04/29/2019 19:00 456.13 0.00 -- 51.0 210.0
04/29/2019 18:00 456.16 0.00 -- 52.3 212.5
04/29/2019 17:00 456.12 0.00 -- 51.8 211.3
04/29/2019 16:00 456.14 0.00 -- 51.8 215.3
04/29/2019 15:00 456.15 0.00 -- 49.8 221.5
04/29/2019 14:00 456.18 0.00 -- 48.5 219.5
04/29/2019 13:00 456.20 0.00 -- 47.3 220.5
04/29/2019 12:00 456.19 0.00 -- 45.2 221.5
04/29/2019 11:00 456.20 0.00 -- 43.4 224.3
04/29/2019 10:00 456.21 0.00 -- 41.9 225.0
04/29/2019 09:00 456.22 0.00 -- 40.0 224.5
04/29/2019 08:00 456.17 0.00 -- 39.2 231.0
04/29/2019 07:00 456.30 0.00 -- 37.6 244.8
04/29/2019 06:00 456.24 0.00 -- 34.1 241.8
04/29/2019 05:00 456.33 0.00 -- 36.0 247.8
04/29/2019 04:00 456.28 0.00 -- 33.1 245.3
04/29/2019 03:00 456.40 0.00 -- 34.7 240.8
04/29/2019 02:00 456.30 0.00 -- 36.7 246.3
04/29/2019 01:00 456.40 0.00 -- 41.5 246.0
04/29/2019 00:00 456.28 0.00 0.00 42.0 241.3
04/28/2019 23:00 456.36 0.00 -- 43.9 247.0
04/28/2019 22:00 456.31 0.00 -- 45.3 246.5
04/28/2019 21:00 456.25 0.00 -- 48.1 244.0
04/28/2019 20:00 456.33 0.00 -- 50.8 247.8
04/28/2019 19:00 456.30 0.00 -- 52.4 247.8
04/28/2019 18:00 456.31 0.00 -- 53.2 249.8
04/28/2019 17:00 456.36 0.00 -- 54.9 261.3
04/28/2019 16:00 456.33 0.00 -- 54.5 253.5
04/28/2019 15:00 456.28 0.00 -- 53.1 246.3
04/28/2019 14:00 456.35 0.00 -- 48.1 256.3
04/28/2019 13:00 456.37 0.00 -- 46.8 259.5
04/28/2019 12:00 456.43 0.00 -- 45.2 266.5
04/28/2019 11:00 456.42 0.00 -- 46.9 266.5
04/28/2019 10:00 456.35 0.00 -- 42.0 262.3
04/28/2019 09:00 456.33 0.00 -- 42.4 263.8
04/28/2019 08:00 456.39 0.00 -- 41.1 272.3
04/28/2019 07:00 456.47 0.00 -- 39.6 276.0
04/28/2019 06:00 456.47 0.00 -- 39.6 278.0
04/28/2019 05:00 456.40 0.00 -- 39.4 271.8
04/28/2019 04:00 456.41 0.00 -- 39.3 274.8
04/28/2019 03:00 456.56 0.00 -- 39.1 287.3
04/28/2019 02:00 456.42 0.00 -- 39.7 281.5
04/28/2019 01:00 456.45 0.00 -- 41.5 287.0
04/28/2019 00:00 456.56 0.00 0.00 42.6 284.0
04/27/2019 23:00 456.41 0.00 -- 43.4 288.8
04/27/2019 22:00 456.54 0.00 -- 42.8 290.8
04/27/2019 21:00 456.53 0.00 -- 43.8 297.3
04/27/2019 20:00 456.47 0.00 -- 44.9 290.5
04/27/2019 19:00 456.61 0.00 -- 47.0 305.5
04/27/2019 18:00 456.52 0.00 -- 47.2 279.3
04/27/2019 17:00 456.45 0.00 -- 46.9 290.5
04/27/2019 16:00 456.58 0.00 -- 48.2 294.0
04/27/2019 15:00 456.51 0.00 -- 47.7 284.0
04/27/2019 14:00 456.49 0.00 -- 47.5 275.8
04/27/2019 13:00 456.40 0.00 -- 48.2 267.0
04/27/2019 12:00 456.46 0.00 -- 47.9 287.0
04/27/2019 11:00 456.37 0.01 -- 48.3 264.8
04/27/2019 10:00 456.38 0.01 -- 43.7 258.5
04/27/2019 09:00 456.31 0.08 -- 42.1 246.3
04/27/2019 08:00 456.28 0.06 -- 41.2 231.3
04/27/2019 07:00 456.20 0.09 -- 40.4 222.8
04/27/2019 06:00 456.24 0.28 -- 39.8 227.0
04/27/2019 05:00 456.13 0.13 -- 39.3 211.5
04/27/2019 04:00 456.08 0.25 -- 38.8 208.0
04/27/2019 03:00 456.11 0.02 -- 38.9 199.3
04/27/2019 02:00 456.06 0.01 -- 39.2 197.5
04/27/2019 01:00 456.03 0.02 -- 38.6 197.3
04/27/2019 00:00 456.07 0.15 0.96 39.0 195.3
04/26/2019 23:00 456.04 0.16 -- 39.4 189.8
04/26/2019 22:00 455.96 0.03 -- 39.7 183.3
04/26/2019 21:00 455.99 0.01 -- 39.7 188.5
04/26/2019 20:00 455.98 0.29 -- 39.9 186.3
04/26/2019 19:00 455.96 0.08 -- 41.0 186.8
04/26/2019 18:00 455.99 0.03 -- 41.4 184.8
04/26/2019 17:00 455.98 0.04 -- 43.2 187.8
04/26/2019 16:00 456.01 0.01 -- 43.6 188.8
04/26/2019 15:00 456.03 0.03 -- 43.8 190.5
04/26/2019 14:00 456.03 0.04 -- 45.1 185.3
04/26/2019 13:00 455.97 0.04 -- 44.5 184.8
04/26/2019 12:00 456.01 0.01 -- 43.7 192.5
04/26/2019 11:00 456.08 0.01 -- 43.3 191.3
04/26/2019 10:00 456.02 0.01 -- 42.7 189.5
04/26/2019 09:00 456.01 0.00 -- 41.7 187.5
04/26/2019 08:00 456.04 0.00 -- 40.4 192.3
04/26/2019 07:00 456.04 0.00 -- 38.9 188.3
04/26/2019 06:00 456.08 0.00 -- 38.4 196.3
04/26/2019 05:00 456.00 0.00 -- 38.5 192.3
04/26/2019 04:00 456.06 0.00 -- 37.4 195.5
04/26/2019 03:00 456.11 0.00 -- 38.1 200.3
04/26/2019 02:00 456.04 0.00 -- 39.4 197.0
04/26/2019 01:00 456.04 0.00 -- 41.1 196.3
04/26/2019 00:00 456.07 0.00 0.94 43.2 199.3
04/25/2019 23:00 455.99 0.00 -- 46.6 197.0
04/25/2019 22:00 456.12 0.00 -- 50.5 206.3
04/25/2019 21:00 456.05 0.00 -- 56.4 198.8
04/25/2019 20:00 456.06 0.00 -- 61.8 200.5
04/25/2019 19:00 456.09 0.00 -- 62.5 204.0
04/25/2019 18:00 456.08 0.00 -- 62.1 204.0
04/25/2019 17:00 456.08 0.00 -- 61.7 204.0
04/25/2019 16:00 456.07 0.00 -- 61.3 200.0
04/25/2019 15:00 456.07 0.00 -- 58.5 201.3
04/25/2019 14:00 456.11 0.00 -- 57.7 209.0
04/25/2019 13:00 456.10 0.00 -- 55.4 204.8
04/25/2019 12:00 456.10 0.00 -- 52.0 202.0
04/25/2019 11:00 456.07 0.00 -- 52.9 207.5
04/25/2019 10:00 456.12 0.00 -- 50.9 204.8
04/25/2019 09:00 456.12 0.00 -- 41.0 209.0
04/25/2019 08:00 456.11 0.00 -- 34.4 209.3
04/25/2019 07:00 456.06 0.00 -- 34.0 202.5
04/25/2019 06:00 456.11 0.00 -- 35.4 209.0
04/25/2019 05:00 456.19 0.00 -- 37.1 224.0
04/25/2019 04:00 456.17 0.00 -- 41.5 216.5
04/25/2019 03:00 456.13 0.00 -- 44.1 215.0
04/25/2019 02:00 456.12 0.00 -- 44.3 214.8
04/25/2019 01:00 456.15 0.00 -- 44.2 214.8
04/25/2019 00:00 456.23 0.00 0.00 45.9 217.8
04/24/2019 23:00 456.17 0.00 -- 45.8 218.8
04/24/2019 22:00 456.13 0.00 -- 46.2 214.5
04/24/2019 21:00 456.14 0.00 -- 47.2 215.3
04/24/2019 20:00 456.13 0.00 -- 48.6 219.5
04/24/2019 19:00 456.06 0.00 -- 49.2 215.3
04/24/2019 18:00 456.21 0.00 -- 50.5 215.0
04/24/2019 17:00 456.13 0.00 -- 49.1 219.0
04/24/2019 16:00 456.11 0.00 -- 48.8 217.5
04/24/2019 15:00 456.15 0.00 -- 49.6 221.5
04/24/2019 14:00 456.20 0.00 -- 48.4 231.3
04/24/2019 13:00 456.19 0.00 -- 46.5 229.3
04/24/2019 12:00 456.15 0.00 -- 47.3 225.3
04/24/2019 11:00 456.24 0.00 -- 44.0 229.5
04/24/2019 10:00 456.17 0.00 -- 42.6 226.3
04/24/2019 09:00 456.25 0.01 -- 42.4 235.3
04/24/2019 08:00 456.17 0.00 -- 41.8 227.3
04/24/2019 07:00 456.30 0.00 -- 41.4 245.5
04/24/2019 06:00 456.21 0.01 -- 42.0 236.0
04/24/2019 05:00 456.22 0.04 -- 42.3 238.5
04/24/2019 04:00 456.23 0.04 -- 42.5 238.5
04/24/2019 03:00 456.30 0.07 -- 43.1 244.8
04/24/2019 02:00 456.24 0.02 -- 43.5 242.3
04/24/2019 01:00 456.25 0.00 -- 44.1 239.3
04/24/2019 00:00 456.24 0.00 0.19 44.0 239.0
04/23/2019 23:00 456.33 0.00 -- 44.5 244.3
04/23/2019 22:00 456.23 0.00 -- 45.3 235.8
04/23/2019 21:00 456.25 0.00 -- 46.7 241.0
04/23/2019 20:00 456.27 0.00 -- 48.8 247.3
04/23/2019 19:00 456.29 0.00 -- 51.7 243.8
04/23/2019 18:00 456.31 0.00 -- 53.5 241.0
04/23/2019 17:00 456.24 0.00 -- 55.5 248.0
04/23/2019 16:00 456.41 0.00 -- 55.2 258.0
04/23/2019 15:00 456.30 0.00 -- 55.8 252.5
04/23/2019 14:00 456.29 0.00 -- 53.8 242.8
04/23/2019 13:00 456.33 0.00 -- 52.4 251.5
04/23/2019 12:00 456.25 0.00 -- 50.3 242.5
04/23/2019 11:00 456.31 0.00 -- 49.0 245.5
04/23/2019 10:00 456.31 0.00 -- 48.2 247.5
04/23/2019 09:00 456.39 0.00 -- 48.6 253.0
04/23/2019 08:00 456.39 0.00 -- 48.3 252.0
04/23/2019 07:00 456.35 0.00 -- 49.3 247.0
04/23/2019 06:00 456.34 0.00 -- 49.1 248.8
04/23/2019 05:00 456.32 0.01 -- 49.7 245.3
04/23/2019 04:00 456.37 0.13 -- 50.1 256.0
04/23/2019 03:00 456.30 0.02 -- 50.5 249.0
04/23/2019 02:00 456.36 0.05 -- 51.4 257.0
04/23/2019 01:00 456.31 0.02 -- 53.0 249.0
04/23/2019 00:00 456.27 0.02 0.23 54.8 259.0
04/22/2019 23:00 456.34 0.01 -- 56.3 266.5
04/22/2019 22:00 456.40 0.01 -- 59.0 263.0
04/22/2019 21:00 456.46 0.00 -- 61.0 266.3
04/22/2019 20:00 456.25 0.00 -- 63.0 256.5
04/22/2019 19:00 456.38 0.00 -- 64.6 258.5
04/22/2019 18:00 456.30 0.00 -- 67.2 265.5
04/22/2019 17:00 456.49 0.00 -- 67.5 274.8
04/22/2019 16:00 456.46 0.00 -- 70.1 272.3
04/22/2019 15:00 456.45 0.00 -- 72.4 273.8
04/22/2019 14:00 456.32 0.00 -- 71.1 262.8
04/22/2019 13:00 456.38 0.00 -- 65.3 264.5
04/22/2019 12:00 456.28 0.00 -- 62.0 271.8
04/22/2019 11:00 456.52 0.00 -- 60.5 289.0
04/22/2019 10:00 456.45 0.00 -- 52.5 279.5
04/22/2019 09:00 456.53 0.00 -- 47.5 288.3
04/22/2019 08:00 456.57 0.00 -- 44.5 297.0
04/22/2019 07:00 456.45 0.00 -- 44.8 287.8
04/22/2019 06:00 456.47 0.00 -- 46.6 279.8
04/22/2019 05:00 456.47 0.00 -- 46.5 286.8
04/22/2019 04:00 456.51 0.00 -- 47.4 282.8
04/22/2019 03:00 456.50 0.00 -- 48.2 288.8
04/22/2019 02:00 456.47 0.00 -- 50.0 292.0
04/22/2019 01:00 456.44 0.00 -- 51.7 297.3
04/22/2019 00:00 456.55 0.00 0.04 54.0 296.0
04/21/2019 23:00 456.52 0.00 -- 54.6 295.3
04/21/2019 22:00 456.56 0.00 -- 55.5 295.3
04/21/2019 21:00 456.56 0.00 -- 60.6 288.8
04/21/2019 20:00 456.51 0.00 -- 68.3 288.0
04/21/2019 19:00 456.57 0.00 -- 68.1 295.3
04/21/2019 18:00 456.50 0.00 -- 68.0 297.0
04/21/2019 17:00 456.64 0.00 -- 68.0 314.3
04/21/2019 16:00 456.69 0.00 -- 67.7 316.0
04/21/2019 15:00 456.57 0.00 -- 67.4 312.5
04/21/2019 14:00 456.50 0.00 -- 65.1 305.0
04/21/2019 13:00 456.58 0.00 -- 63.8 303.0
04/21/2019 12:00 456.64 0.00 -- 61.0 303.0
04/21/2019 11:00 456.61 0.01 -- 58.8 300.8
04/21/2019 10:00 456.49 0.00 -- 57.2 288.5
04/21/2019 09:00 456.62 0.00 -- 53.1 270.5
04/21/2019 08:00 456.38 0.00 -- 52.5 251.3
04/21/2019 07:00 456.37 0.00 -- 54.4 260.5
04/21/2019 06:00 456.51 0.01 -- 56.9 268.5
04/21/2019 05:00 456.38 0.17 -- 57.9 259.0
04/21/2019 04:00 456.37 0.06 -- 53.2 260.5
04/21/2019 03:00 456.32 0.02 -- 52.4 254.8
04/21/2019 02:00 456.23 0.00 -- 52.1 229.8
04/21/2019 01:00 456.16 0.00 -- 52.7 217.5
04/21/2019 00:00 456.29 0.00 0.27 57.0 242.5
04/20/2019 23:00 456.11 0.00 -- 56.9 223.3
04/20/2019 22:00 456.24 0.00 -- 60.1 226.8
04/20/2019 21:00 456.22 0.00 -- 61.7 235.3
04/20/2019 20:00 456.14 0.00 -- 63.6 205.3
04/20/2019 19:00 456.08 0.01 -- 64.3 218.3
04/20/2019 18:00 456.25 0.00 -- 63.4 217.3
04/20/2019 17:00 456.10 0.15 -- 65.4 211.3
04/20/2019 16:00 456.17 0.17 -- 62.5 205.0
04/20/2019 15:00 456.00 0.11 -- 63.6 205.3
04/20/2019 14:00 456.08 0.12 -- 63.9 204.5
04/20/2019 13:00 456.10 0.07 -- 61.5 198.8
04/20/2019 12:00 456.05 0.00 -- 59.3 201.3
04/20/2019 11:00 456.05 0.00 -- 57.5 193.8
04/20/2019 10:00 456.01 0.01 -- 55.7 189.5
04/20/2019 09:00 456.00 0.00 -- 57.6 189.5
04/20/2019 08:00 456.00 0.03 -- 52.4 184.8
04/20/2019 07:00 456.01 0.03 -- 52.5 180.5
04/20/2019 06:00 455.94 0.02 -- 50.5 178.8
04/20/2019 05:00 455.96 0.06 -- 51.0 173.8
04/20/2019 04:00 455.96 0.06 -- 51.3 173.3
04/20/2019 03:00 455.90 0.07 -- 50.1 166.5
04/20/2019 02:00 455.87 0.03 -- 50.6 164.5
04/20/2019 01:00 455.90 0.01 -- 51.7 166.5
04/20/2019 00:00 455.93 0.00 0.95 52.4 165.3
04/19/2019 23:00 455.89 0.00 -- 52.3 165.8
04/19/2019 22:00 455.86 0.00 -- 55.4 162.3
04/19/2019 21:00 455.89 0.00 -- 56.2 165.3
04/19/2019 20:00 455.89 0.00 -- 59.7 166.3
04/19/2019 19:00 455.88 0.00 -- 68.3 162.5
04/19/2019 18:00 455.89 0.00 -- 70.6 168.0
04/19/2019 17:00 455.88 0.00 -- 68.0 165.8
04/19/2019 16:00 455.88 0.00 -- 65.2 163.3
04/19/2019 15:00 455.90 0.00 -- 63.1 169.8
04/19/2019 14:00 455.85 0.00 -- 61.0 162.5
04/19/2019 13:00 455.90 0.00 -- 57.6 165.5
04/19/2019 12:00 -- -- -- 49.7 164.8
04/19/2019 11:00 -- -- -- 46.8 166.8
04/19/2019 10:00 -- -- -- 43.4 169.8
04/19/2019 09:00 -- -- -- 41.5 169.3
04/19/2019 08:00 -- -- -- 39.4 173.0
04/19/2019 07:00 -- -- -- 39.1 171.8
04/19/2019 06:00 -- -- -- 38.2 170.8
04/19/2019 05:00 -- -- -- 38.5 173.0
04/19/2019 04:00 -- -- -- 38.8 170.3
04/19/2019 03:00 -- -- -- 38.8 173.0
04/19/2019 02:00 -- -- -- 38.9 170.8
04/19/2019 01:00 -- -- -- 39.4 175.0
04/19/2019 00:00 -- -- 0.01 39.6 174.8